Time,TemperatureF,DewpointF,PressureIn,WindDirection,WindDirectionDegrees,WindSpeedMPH,WindSpeedGustMPH,Humidity,HourlyPrecipIn,Conditions,Clouds,dailyrainin,SoftwareType,DateUTC
2013-10-11 00:00:00,41.9,18.8,29.82,SSW,207,3.1,3.6,39,0.00,,---,0.00,VWS V14.01,2013-10-11 06:00:00,
2013-10-11 00:01:00,41.9,18.8,29.82,SSW,207,3.1,3.6,39,0.00,,---,0.00,VWS V14.01,2013-10-11 06:01:00,
2013-10-11 00:02:00,41.9,18.8,29.82,SSW,202,3.6,3.6,39,0.00,,---,0.00,VWS V14.01,2013-10-11 06:02:00,
2013-10-11 00:03:00,41.9,18.8,29.82,SSW,209,6.3,6.3,39,0.00,,---,0.00,VWS V14.01,2013-10-11 06:03:00,
2013-10-11 00:04:00,41.9,18.8,29.82,SSW,211,3.6,4.0,39,0.00,,---,0.00,VWS V14.01,2013-10-11 06:04:00,
2013-10-11 00:05:00,41.9,18.8,29.82,SW,227,2.7,2.7,39,0.00,,---,0.00,VWS V14.01,2013-10-11 06:05:00,
2013-10-11 00:06:00,41.9,18.8,29.82,SSW,208,3.1,3.1,39,0.00,,---,0.00,VWS V14.01,2013-10-11 06:06:00,
2013-10-11 00:07:00,41.9,18.8,29.82,SSW,206,3.1,3.6,39,0.00,,---,0.00,VWS V14.01,2013-10-11 06:07:00,
2013-10-11 00:08:00,41.9,18.8,29.82,SSW,207,3.1,3.1,39,0.00,,---,0.00,VWS V14.01,2013-10-11 06:08:00,
2013-10-11 00:09:00,41.9,18.8,29.82,SSW,201,5.4,6.3,39,0.00,,---,0.00,VWS V14.01,2013-10-11 06:09:00,
2013-10-11 00:10:00,41.9,18.8,29.82,SW,220,3.1,4.9,39,0.00,,---,0.00,VWS V14.01,2013-10-11 06:10:00,
2013-10-11 00:11:00,41.9,18.8,29.82,SW,220,3.6,4.0,39,0.00,,---,0.00,VWS V14.01,2013-10-11 06:11:00,
2013-10-11 00:12:00,41.9,18.8,29.82,SSW,203,3.1,3.6,39,0.00,,---,0.00,VWS V14.01,2013-10-11 06:12:00,
2013-10-11 00:13:00,41.9,18.8,29.82,SSW,205,3.1,3.1,39,0.00,,---,0.00,VWS V14.01,2013-10-11 06:13:00,
2013-10-11 00:14:00,41.9,18.8,29.82,SSW,212,3.6,3.6,39,0.00,,---,0.00,VWS V14.01,2013-10-11 06:14:00,
2013-10-11 00:15:00,41.9,18.8,29.82,SSW,209,3.1,4.0,39,0.00,,---,0.00,VWS V14.01,2013-10-11 06:15:00,
2013-10-11 00:18:00,41.7,18.6,29.82,WSW,242,3.6,4.9,39,0.00,,---,0.00,VWS V14.01,2013-10-11 06:18:00,
2013-10-11 00:19:00,41.7,18.6,29.82,SW,214,5.4,5.4,39,0.00,,---,0.00,VWS V14.01,2013-10-11 06:19:00,
2013-10-11 00:20:00,41.7,18.6,29.82,SW,227,4.0,5.4,39,0.00,,---,0.00,VWS V14.01,2013-10-11 06:20:00,
2013-10-11 00:23:00,41.7,18.6,29.82,SW,226,2.7,4.9,39,0.00,,---,0.00,VWS V14.01,2013-10-11 06:23:00,
2013-10-11 00:24:00,41.7,18.6,29.82,SSW,202,3.6,5.4,39,0.00,,---,0.00,VWS V14.01,2013-10-11 06:24:00,
2013-10-11 00:25:00,41.7,18.6,29.82,South,179,4.0,4.0,39,0.00,,---,0.00,VWS V14.01,2013-10-11 06:25:00,
2013-10-11 00:26:00,41.9,18.8,29.82,SW,231,3.1,4.0,39,0.00,,---,0.00,VWS V14.01,2013-10-11 06:26:00,
2013-10-11 00:28:00,41.9,18.8,29.82,WSW,248,2.7,3.1,39,0.00,,---,0.00,VWS V14.01,2013-10-11 06:28:00,
2013-10-11 00:30:00,41.7,18.6,29.82,SSW,212,6.3,6.7,39,0.00,,---,0.00,VWS V14.01,2013-10-11 06:30:00,
2013-10-11 00:31:00,41.9,18.8,29.82,SW,227,3.6,4.0,39,0.00,,---,0.00,VWS V14.01,2013-10-11 06:31:00,
2013-10-11 00:33:00,41.7,18.6,29.82,SSW,202,6.3,6.3,39,0.00,,---,0.00,VWS V14.01,2013-10-11 06:33:00,
2013-10-11 00:35:00,41.7,18.6,29.82,SW,223,3.1,3.6,39,0.00,,---,0.00,VWS V14.01,2013-10-11 06:35:00,
2013-10-11 00:36:00,41.7,18.6,29.82,SW,232,3.6,3.6,39,0.00,,---,0.00,VWS V14.01,2013-10-11 06:36:00,
2013-10-11 00:38:00,41.7,18.6,29.82,SW,217,2.7,3.1,39,0.00,,---,0.00,VWS V14.01,2013-10-11 06:38:00,
2013-10-11 00:40:00,41.7,18.6,29.82,SW,217,2.7,2.7,39,0.00,,---,0.00,VWS V14.01,2013-10-11 06:40:00,
2013-10-11 00:41:00,41.7,18.6,29.82,SW,224,5.4,5.4,39,0.00,,---,0.00,VWS V14.01,2013-10-11 06:41:00,
2013-10-11 00:43:00,41.5,18.4,29.82,SSW,209,3.6,3.6,39,0.00,,---,0.00,VWS V14.01,2013-10-11 06:43:00,
2013-10-11 00:45:00,41.5,18.4,29.82,SW,215,2.7,2.7,39,0.00,,---,0.00,VWS V14.01,2013-10-11 06:45:00,
2013-10-11 00:46:00,41.5,18.4,29.82,SSW,210,3.1,4.0,39,0.00,,---,0.00,VWS V14.01,2013-10-11 06:46:00,
2013-10-11 00:47:00,41.4,18.3,29.82,SSW,213,3.6,3.6,39,0.00,,---,0.00,VWS V14.01,2013-10-11 06:47:00,
2013-10-11 00:48:00,41.4,18.3,29.82,South,189,5.4,5.4,39,0.00,,---,0.00,VWS V14.01,2013-10-11 06:48:00,
2013-10-11 00:49:00,41.4,18.3,29.82,SSW,196,4.0,5.4,39,0.00,,---,0.00,VWS V14.01,2013-10-11 06:49:00,
2013-10-11 00:50:00,41.4,18.3,29.82,SW,222,6.3,6.3,39,0.00,,---,0.00,VWS V14.01,2013-10-11 06:50:00,
2013-10-11 00:51:00,41.4,18.3,29.82,SSW,200,3.6,4.0,39,0.00,,---,0.00,VWS V14.01,2013-10-11 06:51:00,
2013-10-11 00:52:00,41.4,18.3,29.82,SSW,208,4.0,4.0,39,0.00,,---,0.00,VWS V14.01,2013-10-11 06:52:00,
2013-10-11 00:53:00,41.5,18.4,29.82,SSW,202,4.0,4.9,39,0.00,,---,0.00,VWS V14.01,2013-10-11 06:53:00,
2013-10-11 00:54:00,41.5,18.4,29.82,SSW,204,5.4,5.4,39,0.00,,---,0.00,VWS V14.01,2013-10-11 06:54:00,
2013-10-11 00:55:00,41.5,18.4,29.82,SSW,207,3.6,4.9,39,0.00,,---,0.00,VWS V14.01,2013-10-11 06:55:00,
2013-10-11 00:57:00,41.5,18.4,29.82,SSW,205,3.6,3.6,39,0.00,,---,0.00,VWS V14.01,2013-10-11 06:57:00,
2013-10-11 00:58:00,41.5,18.4,29.82,WSW,250,3.1,3.6,39,0.00,,---,0.00,VWS V14.01,2013-10-11 06:58:00,
2013-10-11 00:59:00,41.5,18.4,29.82,WSW,253,3.1,3.1,39,0.00,,---,0.00,VWS V14.01,2013-10-11 06:59:00,
2013-10-11 01:00:00,41.5,19.0,29.82,SSW,203,4.9,5.4,40,0.00,,---,0.00,VWS V14.01,2013-10-11 07:00:00,
2013-10-11 01:02:00,41.5,19.0,29.82,WSW,244,4.0,4.0,40,0.00,,---,0.00,VWS V14.01,2013-10-11 07:02:00,
2013-10-11 01:04:00,41.5,19.0,29.82,SW,228,3.6,3.6,40,0.00,,---,0.00,VWS V14.01,2013-10-11 07:04:00,
2013-10-11 01:05:00,41.5,19.0,29.82,SW,227,4.0,4.0,40,0.00,,---,0.00,VWS V14.01,2013-10-11 07:05:00,
2013-10-11 01:07:00,41.5,19.0,29.82,WSW,256,3.6,5.8,40,0.00,,---,0.00,VWS V14.01,2013-10-11 07:07:00,
2013-10-11 01:09:00,41.5,19.0,29.82,WSW,256,2.7,3.1,40,0.00,,---,0.00,VWS V14.01,2013-10-11 07:09:00,
2013-10-11 01:10:00,41.5,19.0,29.82,WSW,257,3.1,3.1,40,0.00,,---,0.00,VWS V14.01,2013-10-11 07:10:00,
2013-10-11 01:12:00,41.5,19.0,29.82,SSW,202,2.7,4.0,40,0.00,,---,0.00,VWS V14.01,2013-10-11 07:12:00,
2013-10-11 01:14:00,41.5,19.0,29.82,WSW,238,3.6,3.6,40,0.00,,---,0.00,VWS V14.01,2013-10-11 07:14:00,
2013-10-11 01:15:00,41.5,19.0,29.82,SW,233,3.6,3.6,40,0.00,,---,0.00,VWS V14.01,2013-10-11 07:15:00,
2013-10-11 01:16:00,41.4,18.9,29.82,WSW,250,4.0,4.0,40,0.00,,---,0.00,VWS V14.01,2013-10-11 07:16:00,
2013-10-11 01:17:00,41.4,18.9,29.82,SW,219,2.7,3.1,40,0.00,,---,0.00,VWS V14.01,2013-10-11 07:17:00,
2013-10-11 01:18:00,41.4,18.9,29.82,SW,219,2.7,3.1,40,0.00,,---,0.00,VWS V14.01,2013-10-11 07:18:00,
2013-10-11 01:19:00,41.2,18.7,29.82,SW,229,3.1,3.6,40,0.00,,---,0.00,VWS V14.01,2013-10-11 07:19:00,
2013-10-11 01:20:00,41.2,18.7,29.82,WSW,253,4.0,4.0,40,0.00,,---,0.00,VWS V14.01,2013-10-11 07:20:00,
2013-10-11 01:21:00,41.2,18.7,29.82,WSW,253,2.7,3.1,40,0.00,,---,0.00,VWS V14.01,2013-10-11 07:21:00,
2013-10-11 01:23:00,41.0,18.5,29.82,SW,223,3.1,3.1,40,0.00,,---,0.00,VWS V14.01,2013-10-11 07:23:00,
2013-10-11 01:24:00,40.8,18.4,29.82,SW,227,2.2,2.2,40,0.00,,---,0.00,VWS V14.01,2013-10-11 07:24:00,
2013-10-11 01:25:00,40.8,18.4,29.82,SW,230,2.7,2.7,40,0.00,,---,0.00,VWS V14.01,2013-10-11 07:25:00,
2013-10-11 01:26:00,40.6,18.8,29.82,SW,215,2.7,3.6,41,0.00,,---,0.00,VWS V14.01,2013-10-11 07:26:00,
2013-10-11 01:28:00,40.5,18.6,29.82,WSW,247,3.1,4.0,41,0.00,,---,0.00,VWS V14.01,2013-10-11 07:28:00,
2013-10-11 01:29:00,40.5,18.6,29.82,WSW,238,3.1,3.1,41,0.00,,---,0.00,VWS V14.01,2013-10-11 07:29:00,
2013-10-11 01:30:00,40.5,18.6,29.82,WSW,250,3.6,3.6,41,0.00,,---,0.00,VWS V14.01,2013-10-11 07:30:00,
2013-10-11 01:31:00,40.3,18.5,29.82,WSW,250,3.6,3.6,41,0.00,,---,0.00,VWS V14.01,2013-10-11 07:31:00,
2013-10-11 01:33:00,40.3,18.5,29.82,West,264,2.7,3.1,41,0.00,,---,0.00,VWS V14.01,2013-10-11 07:33:00,
2013-10-11 01:34:00,40.3,18.5,29.82,West,264,2.7,2.7,41,0.00,,---,0.00,VWS V14.01,2013-10-11 07:34:00,
2013-10-11 01:35:00,40.1,18.3,29.82,West,264,4.0,4.0,41,0.00,,---,0.00,VWS V14.01,2013-10-11 07:35:00,
2013-10-11 01:36:00,40.1,18.3,29.82,West,265,4.0,4.0,41,0.00,,---,0.00,VWS V14.01,2013-10-11 07:36:00,
2013-10-11 01:38:00,39.9,18.1,29.82,West,263,3.1,3.1,41,0.00,,---,0.00,VWS V14.01,2013-10-11 07:38:00,
2013-10-11 01:39:00,39.9,18.7,29.82,WSW,241,3.1,3.1,42,0.00,,---,0.00,VWS V14.01,2013-10-11 07:39:00,
2013-10-11 01:40:00,39.9,18.7,29.82,WSW,241,0.0,0.0,42,0.00,,---,0.00,VWS V14.01,2013-10-11 07:40:00,
2013-10-11 01:41:00,39.9,18.7,29.82,SW,225,0.0,0.0,42,0.00,,---,0.00,VWS V14.01,2013-10-11 07:41:00,
2013-10-11 01:43:00,39.9,18.7,29.82,SSW,211,3.1,3.1,42,0.00,,---,0.00,VWS V14.01,2013-10-11 07:43:00,
2013-10-11 01:44:00,39.9,18.7,29.82,SSW,212,3.6,4.0,42,0.00,,---,0.00,VWS V14.01,2013-10-11 07:44:00,
2013-10-11 01:45:00,39.9,18.7,29.82,SW,233,3.6,3.6,42,0.00,,---,0.00,VWS V14.01,2013-10-11 07:45:00,
2013-10-11 01:46:00,39.9,18.7,29.82,SW,233,3.1,3.6,42,0.00,,---,0.00,VWS V14.01,2013-10-11 07:46:00,
2013-10-11 01:48:00,40.1,18.9,29.82,SSW,209,3.1,3.1,42,0.00,,---,0.00,VWS V14.01,2013-10-11 07:48:00,
2013-10-11 01:49:00,40.1,18.9,29.82,SW,230,3.6,3.6,42,0.00,,---,0.00,VWS V14.01,2013-10-11 07:49:00,
2013-10-11 01:51:00,40.1,18.9,29.82,West,269,2.2,3.1,42,0.00,,---,0.00,VWS V14.01,2013-10-11 07:51:00,
2013-10-11 01:54:00,40.1,18.9,29.82,West,270,0.0,0.0,42,0.00,,---,0.00,VWS V14.01,2013-10-11 07:54:00,
2013-10-11 01:56:00,40.1,18.3,29.82,West,259,3.6,3.6,41,0.00,,---,0.00,VWS V14.01,2013-10-11 07:56:00,
2013-10-11 01:57:00,40.1,18.3,29.82,SW,233,3.1,4.0,41,0.00,,---,0.00,VWS V14.01,2013-10-11 07:57:00,
2013-10-11 01:59:00,40.3,18.5,29.82,WSW,238,3.1,3.1,41,0.00,,---,0.00,VWS V14.01,2013-10-11 07:59:00,
2013-10-11 02:00:00,40.3,19.0,29.82,WSW,254,4.0,4.0,42,0.00,,---,0.00,VWS V14.01,2013-10-11 08:00:00,
2013-10-11 02:01:00,40.5,19.2,29.82,SW,214,2.7,2.7,42,0.00,,---,0.00,VWS V14.01,2013-10-11 08:01:00,
2013-10-11 02:02:00,40.5,19.2,29.82,SW,228,3.1,3.1,42,0.00,,---,0.00,VWS V14.01,2013-10-11 08:02:00,
2013-10-11 02:04:00,40.5,19.2,29.82,WSW,239,2.7,2.7,42,0.00,,---,0.00,VWS V14.01,2013-10-11 08:04:00,
2013-10-11 02:05:00,40.5,18.6,29.82,WSW,240,0.0,0.0,41,0.00,,---,0.00,VWS V14.01,2013-10-11 08:05:00,
2013-10-11 02:06:00,40.5,18.6,29.82,WSW,239,0.0,0.0,41,0.00,,---,0.00,VWS V14.01,2013-10-11 08:06:00,
2013-10-11 02:07:00,40.5,18.6,29.82,SSW,202,5.4,5.4,41,0.00,,---,0.00,VWS V14.01,2013-10-11 08:07:00,
2013-10-11 02:09:00,40.5,18.6,29.82,SW,233,2.7,3.1,41,0.00,,---,0.00,VWS V14.01,2013-10-11 08:09:00,
2013-10-11 02:10:00,40.6,18.8,29.82,WSW,243,0.0,0.0,41,0.00,,---,0.00,VWS V14.01,2013-10-11 08:10:00,
2013-10-11 02:11:00,40.6,18.8,29.82,WSW,248,3.6,3.6,41,0.00,,---,0.00,VWS V14.01,2013-10-11 08:11:00,
2013-10-11 02:12:00,40.6,18.8,29.82,WSW,249,2.7,3.6,41,0.00,,---,0.00,VWS V14.01,2013-10-11 08:12:00,
2013-10-11 02:14:00,40.6,18.8,29.82,SW,231,2.2,3.1,41,0.00,,---,0.00,VWS V14.01,2013-10-11 08:14:00,
2013-10-11 02:15:00,40.6,18.8,29.82,WSW,239,0.0,0.0,41,0.00,,---,0.00,VWS V14.01,2013-10-11 08:15:00,
2013-10-11 02:17:00,40.6,18.8,29.82,WSW,255,0.0,0.0,41,0.00,,---,0.00,VWS V14.01,2013-10-11 08:17:00,
2013-10-11 02:19:00,40.6,18.8,29.82,West,274,3.6,3.6,41,0.00,,---,0.00,VWS V14.01,2013-10-11 08:19:00,
2013-10-11 02:20:00,40.6,18.8,29.82,West,274,2.2,2.2,41,0.00,,---,0.00,VWS V14.01,2013-10-11 08:20:00,
2013-10-11 02:22:00,40.6,18.8,29.82,WSW,254,3.1,3.1,41,0.00,,---,0.00,VWS V14.01,2013-10-11 08:22:00,
2013-10-11 02:25:00,40.6,18.8,29.82,West,279,5.8,5.8,41,0.00,,---,0.00,VWS V14.01,2013-10-11 08:25:00,
2013-10-11 02:27:00,40.8,19.0,29.82,ENE,65,3.6,3.6,41,0.00,,---,0.00,VWS V14.01,2013-10-11 08:27:00,
2013-10-11 02:28:00,40.8,19.0,29.82,WSW,256,3.1,3.1,41,0.00,,---,0.00,VWS V14.01,2013-10-11 08:28:00,
2013-10-11 02:30:00,40.8,18.4,29.82,West,266,3.1,3.1,40,0.00,,---,0.00,VWS V14.01,2013-10-11 08:30:00,
2013-10-11 02:32:00,41.0,18.5,29.82,West,265,4.0,4.0,40,0.00,,---,0.00,VWS V14.01,2013-10-11 08:32:00,
2013-10-11 02:33:00,41.0,18.5,29.82,West,277,3.6,3.6,40,0.00,,---,0.00,VWS V14.01,2013-10-11 08:33:00,
2013-10-11 02:35:00,41.0,18.5,29.82,West,262,3.1,3.1,40,0.00,,---,0.00,VWS V14.01,2013-10-11 08:35:00,
2013-10-11 02:37:00,41.0,18.5,29.82,West,269,2.7,3.6,40,0.00,,---,0.00,VWS V14.01,2013-10-11 08:37:00,
2013-10-11 02:38:00,41.0,18.5,29.82,WSW,257,4.0,4.0,40,0.00,,---,0.00,VWS V14.01,2013-10-11 08:38:00,
2013-10-11 02:40:00,41.0,18.5,29.82,West,265,3.1,4.9,40,0.00,,---,0.00,VWS V14.01,2013-10-11 08:40:00,
2013-10-11 02:41:00,40.8,18.4,29.82,West,266,3.6,4.0,40,0.00,,---,0.00,VWS V14.01,2013-10-11 08:41:00,
2013-10-11 02:42:00,40.8,18.4,29.82,West,269,4.0,4.0,40,0.00,,---,0.00,VWS V14.01,2013-10-11 08:42:00,
2013-10-11 02:43:00,40.8,18.4,29.82,West,275,4.9,4.9,40,0.00,,---,0.00,VWS V14.01,2013-10-11 08:43:00,
2013-10-11 02:45:00,40.8,18.4,29.85,West,267,3.1,4.0,40,0.00,,---,0.00,VWS V14.01,2013-10-11 08:45:00,
2013-10-11 02:46:00,40.8,18.4,29.85,West,267,3.1,3.1,40,0.00,,---,0.00,VWS V14.01,2013-10-11 08:46:00,
2013-10-11 02:47:00,40.8,18.4,29.85,West,263,3.1,3.1,40,0.00,,---,0.00,VWS V14.01,2013-10-11 08:47:00,
2013-10-11 02:48:00,40.6,18.2,29.85,West,272,3.1,3.6,40,0.00,,---,0.00,VWS V14.01,2013-10-11 08:48:00,
2013-10-11 02:49:00,40.6,18.2,29.85,West,272,3.1,3.1,40,0.00,,---,0.00,VWS V14.01,2013-10-11 08:49:00,
2013-10-11 02:50:00,40.6,18.2,29.85,West,267,2.7,3.1,40,0.00,,---,0.00,VWS V14.01,2013-10-11 08:50:00,
2013-10-11 02:51:00,40.6,18.2,29.85,West,271,3.6,3.6,40,0.00,,---,0.00,VWS V14.01,2013-10-11 08:51:00,
2013-10-11 02:52:00,40.5,18.1,29.85,West,275,2.2,3.1,40,0.00,,---,0.00,VWS V14.01,2013-10-11 08:52:00,
2013-10-11 02:53:00,40.5,18.1,29.85,West,271,3.1,3.1,40,0.00,,---,0.00,VWS V14.01,2013-10-11 08:53:00,
2013-10-11 02:54:00,40.5,18.1,29.85,West,275,3.1,3.1,40,0.00,,---,0.00,VWS V14.01,2013-10-11 08:54:00,
2013-10-11 02:55:00,40.3,17.9,29.85,WNW,285,4.0,4.0,40,0.00,,---,0.00,VWS V14.01,2013-10-11 08:55:00,
2013-10-11 02:56:00,40.3,17.9,29.85,WNW,285,4.0,4.0,40,0.00,,---,0.00,VWS V14.01,2013-10-11 08:56:00,
2013-10-11 02:58:00,40.3,18.5,29.85,West,261,2.7,2.7,41,0.00,,---,0.00,VWS V14.01,2013-10-11 08:58:00,
2013-10-11 02:59:00,40.3,18.5,29.85,WSW,243,2.7,3.6,41,0.00,,---,0.00,VWS V14.01,2013-10-11 08:59:00,
2013-10-11 03:00:00,40.1,18.3,29.85,WSW,253,2.7,3.1,41,0.00,,,0.00,VWS V15.00,2013-10-11 09:00:00,
2013-10-11 03:01:00,40.1,18.3,29.85,West,266,0.0,0.0,41,0.00,,---,0.00,VWS V14.01,2013-10-11 09:01:00,
2013-10-11 03:03:00,40.1,17.7,29.85,West,267,0.0,0.0,40,0.00,,---,0.00,VWS V14.01,2013-10-11 09:03:00,
2013-10-11 03:04:00,40.1,17.7,29.85,West,267,0.0,0.0,40,0.00,,---,0.00,VWS V14.01,2013-10-11 09:04:00,
2013-10-11 03:06:00,39.9,18.1,29.85,SW,217,2.7,2.7,41,0.00,,---,0.00,VWS V14.01,2013-10-11 09:06:00,
2013-10-11 03:08:00,39.9,18.1,29.85,SW,236,2.7,3.6,41,0.00,,---,0.00,VWS V14.01,2013-10-11 09:08:00,
2013-10-11 03:09:00,39.9,17.6,29.85,West,265,3.1,3.1,40,0.00,,---,0.00,VWS V14.01,2013-10-11 09:09:00,
2013-10-11 03:11:00,39.9,17.6,29.85,West,260,0.0,2.2,40,0.00,,---,0.00,VWS V14.01,2013-10-11 09:11:00,
2013-10-11 03:12:00,39.9,17.6,29.85,West,260,0.0,0.0,40,0.00,,---,0.00,VWS V14.01,2013-10-11 09:12:00,
2013-10-11 03:13:00,39.9,18.1,29.85,West,260,0.0,0.0,41,0.00,,---,0.00,VWS V14.01,2013-10-11 09:13:00,
2013-10-11 03:14:00,39.9,18.1,29.85,West,259,0.0,0.0,41,0.00,,---,0.00,VWS V14.01,2013-10-11 09:14:00,
2013-10-11 03:15:00,39.9,18.1,29.85,West,261,0.0,0.0,41,0.00,,,0.00,VWS V15.00,2013-10-11 09:15:00,
2013-10-11 03:16:00,39.7,18.0,29.85,SW,232,2.7,2.7,41,0.00,,---,0.00,VWS V14.01,2013-10-11 09:16:00,
2013-10-11 03:17:00,39.7,18.0,29.85,SW,227,2.2,2.2,41,0.00,,---,0.00,VWS V14.01,2013-10-11 09:17:00,
2013-10-11 03:18:00,39.7,18.0,29.85,SW,227,0.0,0.0,41,0.00,,---,0.00,VWS V14.01,2013-10-11 09:18:00,
2013-10-11 03:20:00,39.7,18.0,29.85,SW,226,0.0,0.0,41,0.00,,---,0.00,VWS V14.01,2013-10-11 09:20:00,
2013-10-11 03:21:00,39.7,18.0,29.85,SW,226,0.0,0.0,41,0.00,,---,0.00,VWS V14.01,2013-10-11 09:21:00,
2013-10-11 03:22:00,39.6,17.8,29.85,SW,226,0.0,0.0,41,0.00,,---,0.00,VWS V14.01,2013-10-11 09:22:00,
2013-10-11 03:23:00,39.4,17.7,29.85,SW,223,0.0,0.0,41,0.00,,---,0.00,VWS V14.01,2013-10-11 09:23:00,
2013-10-11 03:25:00,39.4,17.7,29.85,SW,236,0.0,0.0,41,0.00,,---,0.00,VWS V14.01,2013-10-11 09:25:00,
2013-10-11 03:26:00,39.2,17.5,29.85,WSW,237,0.0,0.0,41,0.00,,---,0.00,VWS V14.01,2013-10-11 09:26:00,
2013-10-11 03:27:00,39.2,17.5,29.85,West,266,2.2,4.0,41,0.00,,---,0.00,VWS V14.01,2013-10-11 09:27:00,
2013-10-11 03:29:00,39.2,17.5,29.85,West,268,3.1,3.6,41,0.00,,---,0.00,VWS V14.01,2013-10-11 09:29:00,
2013-10-11 03:30:00,39.2,17.5,29.85,West,268,0.0,2.2,41,0.00,,---,0.00,VWS V14.01,2013-10-11 09:30:00,
2013-10-11 03:31:00,39.2,17.5,29.85,West,268,0.0,0.0,41,0.00,,---,0.00,VWS V14.01,2013-10-11 09:31:00,
2013-10-11 03:32:00,39.2,17.5,29.85,WNW,283,3.1,3.1,41,0.00,,---,0.00,VWS V14.01,2013-10-11 09:32:00,
2013-10-11 03:34:00,39.0,17.3,29.85,WNW,283,0.0,0.0,41,0.00,,---,0.00,VWS V14.01,2013-10-11 09:34:00,
2013-10-11 03:35:00,39.0,17.3,29.85,WNW,284,0.0,0.0,41,0.00,,---,0.00,VWS V14.01,2013-10-11 09:35:00,
2013-10-11 03:36:00,38.8,17.2,29.85,SW,214,3.1,3.1,41,0.00,,---,0.00,VWS V14.01,2013-10-11 09:36:00,
2013-10-11 03:37:00,38.8,17.2,29.85,West,275,3.6,3.6,41,0.00,,---,0.00,VWS V14.01,2013-10-11 09:37:00,
2013-10-11 03:39:00,38.8,17.2,29.85,WSW,241,2.7,4.9,41,0.00,,---,0.00,VWS V14.01,2013-10-11 09:39:00,
2013-10-11 03:41:00,38.8,17.2,29.85,West,281,3.1,3.1,41,0.00,,---,0.00,VWS V14.01,2013-10-11 09:41:00,
2013-10-11 03:42:00,38.8,17.2,29.85,WNW,290,2.7,3.1,41,0.00,,---,0.00,VWS V14.01,2013-10-11 09:42:00,
2013-10-11 03:44:00,39.0,17.3,29.85,WSW,255,5.4,5.4,41,0.00,,---,0.00,VWS V14.01,2013-10-11 09:44:00,
2013-10-11 03:45:00,39.0,17.3,29.85,West,265,3.1,5.4,41,0.00,,,0.00,VWS V15.00,2013-10-11 09:45:00,
2013-10-11 03:46:00,39.2,17.5,29.85,West,271,3.6,3.6,41,0.00,,---,0.00,VWS V14.01,2013-10-11 09:46:00,
2013-10-11 03:47:00,39.2,17.5,29.85,West,272,2.2,4.0,41,0.00,,---,0.00,VWS V14.01,2013-10-11 09:47:00,
2013-10-11 03:49:00,39.2,17.5,29.85,SW,217,3.1,3.1,41,0.00,,---,0.00,VWS V14.01,2013-10-11 09:49:00,
2013-10-11 03:51:00,39.2,17.5,29.85,WSW,257,0.0,0.0,41,0.00,,---,0.00,VWS V14.01,2013-10-11 09:51:00,
2013-10-11 03:52:00,39.2,17.5,29.85,West,268,0.0,0.0,41,0.00,,---,0.00,VWS V14.01,2013-10-11 09:52:00,
2013-10-11 03:53:00,39.2,17.5,29.85,SSW,203,2.7,3.1,41,0.00,,---,0.00,VWS V14.01,2013-10-11 09:53:00,
2013-10-11 03:54:00,39.2,17.5,29.85,SSW,212,2.7,3.1,41,0.00,,---,0.00,VWS V14.01,2013-10-11 09:54:00,
2013-10-11 03:56:00,39.2,17.5,29.85,SSW,212,2.7,3.6,41,0.00,,---,0.00,VWS V14.01,2013-10-11 09:56:00,
2013-10-11 03:57:00,39.0,17.9,29.85,SW,219,2.7,2.7,42,0.00,,---,0.00,VWS V14.01,2013-10-11 09:57:00,
2013-10-11 03:58:00,39.0,17.9,29.85,SW,219,2.7,2.7,42,0.00,,---,0.00,VWS V14.01,2013-10-11 09:58:00,
2013-10-11 03:59:00,38.8,17.7,29.85,SSW,202,0.0,0.0,42,0.00,,---,0.00,VWS V14.01,2013-10-11 09:59:00,
2013-10-11 04:00:00,38.8,17.7,29.85,SSW,202,2.2,2.2,42,0.00,,,0.00,VWS V15.00,2013-10-11 10:00:00,
2013-10-11 04:02:00,38.8,17.7,29.85,SW,230,4.0,4.0,42,0.00,,---,0.00,VWS V14.01,2013-10-11 10:02:00,
2013-10-11 04:03:00,38.7,17.0,29.85,West,268,3.6,3.6,41,0.00,,---,0.00,VWS V14.01,2013-10-11 10:03:00,
2013-10-11 04:04:00,38.7,17.0,29.85,West,269,2.7,3.6,41,0.00,,---,0.00,VWS V14.01,2013-10-11 10:04:00,
2013-10-11 04:05:00,38.7,17.6,29.85,WSW,247,2.7,3.6,42,0.00,,---,0.00,VWS V14.01,2013-10-11 10:05:00,
2013-10-11 04:07:00,38.7,17.6,29.85,WSW,242,0.0,0.0,42,0.00,,---,0.00,VWS V14.01,2013-10-11 10:07:00,
2013-10-11 04:08:00,38.5,17.4,29.85,South,188,3.1,3.6,42,0.00,,---,0.00,VWS V14.01,2013-10-11 10:08:00,
2013-10-11 04:09:00,38.5,17.4,29.85,SW,222,2.7,4.0,42,0.00,,---,0.00,VWS V14.01,2013-10-11 10:09:00,
2013-10-11 04:10:00,38.5,16.8,29.85,SW,222,2.2,2.7,41,0.00,,---,0.00,VWS V14.01,2013-10-11 10:10:00,
2013-10-11 04:12:00,38.5,16.8,29.85,SSW,200,4.0,4.0,41,0.00,,---,0.00,VWS V14.01,2013-10-11 10:12:00,
2013-10-11 04:13:00,38.5,17.4,29.85,SW,234,3.1,4.9,42,0.00,,---,0.00,VWS V14.01,2013-10-11 10:13:00,
2013-10-11 04:14:00,38.5,16.8,29.85,SSW,194,4.0,4.0,41,0.00,,---,0.00,VWS V14.01,2013-10-11 10:14:00,
2013-10-11 04:15:00,38.5,16.8,29.85,SW,236,3.6,3.6,41,0.00,,,0.00,VWS V15.00,2013-10-11 10:15:00,
2013-10-11 04:17:00,38.5,16.8,29.85,West,281,0.0,0.0,41,0.00,,---,0.00,VWS V14.01,2013-10-11 10:17:00,
2013-10-11 04:18:00,38.5,16.8,29.85,SSW,200,5.4,5.4,41,0.00,,---,0.00,VWS V14.01,2013-10-11 10:18:00,
2013-10-11 04:19:00,38.5,16.8,29.85,SSW,212,0.0,2.2,41,0.00,,---,0.00,VWS V14.01,2013-10-11 10:19:00,
2013-10-11 04:22:00,38.5,16.8,29.85,SSW,203,3.6,3.6,41,0.00,,---,0.00,VWS V14.01,2013-10-11 10:22:00,
2013-10-11 04:23:00,38.5,16.8,29.85,SSW,208,5.4,5.4,41,0.00,,---,0.00,VWS V14.01,2013-10-11 10:23:00,
2013-10-11 04:24:00,38.5,16.8,29.85,SSW,199,4.0,4.0,41,0.00,,---,0.00,VWS V14.01,2013-10-11 10:24:00,
2013-10-11 04:25:00,38.5,16.8,29.85,SSW,199,0.0,2.7,41,0.00,,---,0.00,VWS V14.01,2013-10-11 10:25:00,
2013-10-11 04:27:00,38.3,16.7,29.85,SW,219,4.9,5.4,41,0.00,,---,0.00,VWS V14.01,2013-10-11 10:27:00,
2013-10-11 04:28:00,38.3,16.7,29.85,SSW,195,4.9,5.8,41,0.00,,---,0.00,VWS V14.01,2013-10-11 10:28:00,
2013-10-11 04:29:00,38.3,16.7,29.85,SSW,193,4.9,4.9,41,0.00,,---,0.00,VWS V14.01,2013-10-11 10:29:00,
2013-10-11 04:30:00,38.3,16.7,29.85,SW,217,3.6,5.4,41,0.00,,---,0.00,VWS V14.01,2013-10-11 10:30:00,
2013-10-11 04:32:00,38.3,16.7,29.85,SSW,201,4.0,5.4,41,0.00,,---,0.00,VWS V14.01,2013-10-11 10:32:00,
2013-10-11 04:33:00,38.3,16.7,29.85,SSW,204,3.6,4.0,41,0.00,,---,0.00,VWS V14.01,2013-10-11 10:33:00,
2013-10-11 04:35:00,38.3,16.7,29.85,SW,219,3.1,7.2,41,0.00,,---,0.00,VWS V14.01,2013-10-11 10:35:00,
2013-10-11 04:37:00,38.3,16.7,29.85,SSW,209,6.3,6.3,41,0.00,,---,0.00,VWS V14.01,2013-10-11 10:37:00,
2013-10-11 04:38:00,38.3,16.7,29.85,SW,218,3.6,5.4,41,0.00,,---,0.00,VWS V14.01,2013-10-11 10:38:00,
2013-10-11 04:40:00,38.3,17.2,29.85,SW,217,5.8,5.8,42,0.00,,---,0.00,VWS V14.01,2013-10-11 10:40:00,
2013-10-11 04:41:00,38.1,17.1,29.85,SSW,201,6.3,6.3,42,0.00,,---,0.00,VWS V14.01,2013-10-11 10:41:00,
2013-10-11 04:42:00,38.1,17.1,29.85,SSW,205,5.8,5.8,42,0.00,,---,0.00,VWS V14.01,2013-10-11 10:42:00,
2013-10-11 04:43:00,38.1,17.1,29.85,SSW,210,6.3,6.3,42,0.00,,---,0.00,VWS V14.01,2013-10-11 10:43:00,
2013-10-11 04:45:00,38.1,17.1,29.85,SSW,200,5.8,5.8,42,0.00,,---,0.00,VWS V14.01,2013-10-11 10:45:00,
2013-10-11 04:47:00,38.1,17.1,29.85,SSW,207,5.4,5.4,42,0.00,,---,0.00,VWS V14.01,2013-10-11 10:47:00,
2013-10-11 04:48:00,38.1,17.1,29.85,SSW,203,6.3,6.3,42,0.00,,---,0.00,VWS V14.01,2013-10-11 10:48:00,
2013-10-11 04:50:00,37.9,16.9,29.85,SSW,205,4.0,4.0,42,0.00,,---,0.00,VWS V14.01,2013-10-11 10:50:00,
2013-10-11 04:52:00,37.9,17.5,29.85,SSW,211,4.0,4.0,43,0.00,,---,0.00,VWS V14.01,2013-10-11 10:52:00,
2013-10-11 04:53:00,37.9,17.5,29.85,SSW,211,4.5,4.5,43,0.00,,---,0.00,VWS V14.01,2013-10-11 10:53:00,
2013-10-11 04:54:00,37.9,17.5,29.85,SSW,199,3.6,4.9,43,0.00,,---,0.00,VWS V14.01,2013-10-11 10:54:00,
2013-10-11 04:56:00,37.9,17.5,29.85,South,185,5.4,5.4,43,0.00,,---,0.00,VWS V14.01,2013-10-11 10:56:00,
2013-10-11 04:57:00,37.8,17.3,29.85,SSW,205,4.0,4.0,43,0.00,,---,0.00,VWS V14.01,2013-10-11 10:57:00,
2013-10-11 04:58:00,37.8,17.3,29.85,SW,215,2.2,3.6,43,0.00,,---,0.00,VWS V14.01,2013-10-11 10:58:00,
2013-10-11 04:59:00,37.8,17.3,29.85,SW,215,0.0,2.2,43,0.00,,---,0.00,VWS V14.01,2013-10-11 10:59:00,
2013-10-11 05:00:00,37.8,17.3,29.85,SSW,202,4.9,4.9,43,0.00,,,0.00,VWS V15.00,2013-10-11 11:00:00,
2013-10-11 05:02:00,37.8,17.3,29.85,SSW,201,3.6,3.6,43,0.00,,---,0.00,VWS V14.01,2013-10-11 11:02:00,
2013-10-11 05:03:00,37.6,17.1,29.85,SSW,207,2.7,2.7,43,0.00,,---,0.00,VWS V14.01,2013-10-11 11:03:00,
2013-10-11 05:04:00,37.6,17.1,29.85,SSW,203,4.5,4.5,43,0.00,,---,0.00,VWS V14.01,2013-10-11 11:04:00,
2013-10-11 05:07:00,37.6,17.1,29.85,SSW,211,5.4,5.4,43,0.00,,---,0.00,VWS V14.01,2013-10-11 11:07:00,
2013-10-11 05:08:00,37.6,17.1,29.85,SSW,195,3.1,4.9,43,0.00,,---,0.00,VWS V14.01,2013-10-11 11:08:00,
2013-10-11 05:09:00,37.6,17.1,29.85,SSW,194,3.6,4.9,43,0.00,,---,0.00,VWS V14.01,2013-10-11 11:09:00,
2013-10-11 05:13:00,37.6,17.1,29.85,SSW,195,5.4,5.4,43,0.00,,---,0.00,VWS V14.01,2013-10-11 11:13:00,
2013-10-11 05:14:00,37.4,17.0,29.85,SSW,205,5.4,5.4,43,0.00,,---,0.00,VWS V14.01,2013-10-11 11:14:00,
2013-10-11 05:15:00,37.4,17.0,29.85,South,188,4.0,4.0,43,0.00,,---,0.00,VWS V14.01,2013-10-11 11:15:00,
2013-10-11 05:18:00,37.4,17.0,29.85,South,191,0.0,0.0,43,0.00,,---,0.00,VWS V14.01,2013-10-11 11:18:00,
2013-10-11 05:19:00,37.2,16.8,29.85,South,187,2.2,2.7,43,0.00,,---,0.00,VWS V14.01,2013-10-11 11:19:00,
2013-10-11 05:20:00,37.2,16.8,29.85,South,187,0.0,0.0,43,0.00,,---,0.00,VWS V14.01,2013-10-11 11:20:00,
2013-10-11 05:23:00,37.2,16.8,29.85,South,188,3.6,4.0,43,0.00,,---,0.00,VWS V14.01,2013-10-11 11:23:00,
2013-10-11 05:24:00,37.2,16.8,29.85,South,189,2.2,3.6,43,0.00,,---,0.00,VWS V14.01,2013-10-11 11:24:00,
2013-10-11 05:25:00,37.2,16.8,29.85,South,185,2.7,2.7,43,0.00,,---,0.00,VWS V14.01,2013-10-11 11:25:00,
2013-10-11 05:28:00,37.2,16.8,29.85,South,185,0.0,0.0,43,0.00,,---,0.00,VWS V14.01,2013-10-11 11:28:00,
2013-10-11 05:29:00,37.2,16.8,29.85,South,185,0.0,0.0,43,0.00,,---,0.00,VWS V14.01,2013-10-11 11:29:00,
2013-10-11 05:30:00,37.0,16.6,29.88,South,185,0.0,0.0,43,0.00,,---,0.00,VWS V14.01,2013-10-11 11:30:00,
2013-10-11 05:33:00,37.0,16.6,29.88,South,184,0.0,0.0,43,0.00,,---,0.00,VWS V14.01,2013-10-11 11:33:00,
2013-10-11 05:34:00,37.0,16.6,29.88,South,184,0.0,0.0,43,0.00,,---,0.00,VWS V14.01,2013-10-11 11:34:00,
2013-10-11 05:35:00,36.9,16.5,29.88,South,184,0.0,0.0,43,0.00,,---,0.00,VWS V14.01,2013-10-11 11:35:00,
2013-10-11 05:36:00,36.9,16.5,29.88,South,184,0.0,0.0,43,0.00,,---,0.00,VWS V14.01,2013-10-11 11:36:00,
2013-10-11 05:38:00,36.9,16.5,29.88,South,184,0.0,0.0,43,0.00,,---,0.00,VWS V14.01,2013-10-11 11:38:00,
2013-10-11 05:39:00,36.9,16.5,29.88,South,184,0.0,0.0,43,0.00,,---,0.00,VWS V14.01,2013-10-11 11:39:00,
2013-10-11 05:40:00,36.9,16.5,29.88,South,184,0.0,0.0,43,0.00,,---,0.00,VWS V14.01,2013-10-11 11:40:00,
2013-10-11 05:41:00,36.9,16.5,29.88,South,172,3.1,3.1,43,0.00,,---,0.00,VWS V14.01,2013-10-11 11:41:00,
2013-10-11 05:43:00,36.9,17.0,29.88,South,183,2.7,3.6,44,0.00,,---,0.00,VWS V14.01,2013-10-11 11:43:00,
2013-10-11 05:45:00,36.9,17.0,29.88,SSW,193,2.2,2.7,44,0.00,,---,0.00,VWS V14.01,2013-10-11 11:45:00,
2013-10-11 05:46:00,36.9,17.0,29.88,SSW,193,0.0,0.0,44,0.00,,---,0.00,VWS V14.01,2013-10-11 11:46:00,
2013-10-11 05:48:00,36.7,16.8,29.88,SSW,194,0.0,0.0,44,0.00,,---,0.00,VWS V14.01,2013-10-11 11:48:00,
2013-10-11 05:50:00,36.7,16.8,29.88,SSW,194,0.0,0.0,44,0.00,,---,0.00,VWS V14.01,2013-10-11 11:50:00,
2013-10-11 05:51:00,36.7,16.8,29.88,SSW,194,0.0,0.0,44,0.00,,---,0.00,VWS V14.01,2013-10-11 11:51:00,
2013-10-11 05:54:00,36.7,17.4,29.88,SSW,194,0.0,0.0,45,0.00,,---,0.00,VWS V14.01,2013-10-11 11:54:00,
2013-10-11 05:55:00,36.7,16.8,29.88,SSW,194,0.0,0.0,44,0.00,,---,0.00,VWS V14.01,2013-10-11 11:55:00,
2013-10-11 05:56:00,36.7,17.4,29.88,SSW,194,0.0,0.0,45,0.00,,---,0.00,VWS V14.01,2013-10-11 11:56:00,
2013-10-11 05:57:00,36.7,17.4,29.88,SSW,194,0.0,0.0,45,0.00,,---,0.00,VWS V14.01,2013-10-11 11:57:00,
2013-10-11 05:59:00,36.7,17.4,29.88,SSW,194,0.0,0.0,45,0.00,,---,0.00,VWS V14.01,2013-10-11 11:59:00,
2013-10-11 06:00:00,36.7,17.4,29.88,SSW,194,0.0,0.0,45,0.00,,---,0.00,VWS V14.01,2013-10-11 12:00:00,
2013-10-11 06:01:00,36.7,17.4,29.88,SSW,194,0.0,0.0,45,0.00,,---,0.00,VWS V14.01,2013-10-11 12:01:00,
2013-10-11 06:02:00,36.7,17.9,29.88,SSW,194,0.0,0.0,46,0.00,,---,0.00,VWS V14.01,2013-10-11 12:02:00,
2013-10-11 06:04:00,36.7,17.9,29.88,SW,236,0.0,0.0,46,0.00,,---,0.00,VWS V14.01,2013-10-11 12:04:00,
2013-10-11 06:05:00,36.7,17.9,29.88,SW,236,0.0,0.0,46,0.00,,---,0.00,VWS V14.01,2013-10-11 12:05:00,
2013-10-11 06:06:00,36.5,18.2,29.88,SW,236,0.0,0.0,47,0.00,,---,0.00,VWS V14.01,2013-10-11 12:06:00,
2013-10-11 06:07:00,36.5,17.7,29.88,SW,236,0.0,0.0,46,0.00,,---,0.00,VWS V14.01,2013-10-11 12:07:00,
2013-10-11 06:09:00,36.3,17.5,29.88,SW,236,0.0,0.0,46,0.00,,---,0.00,VWS V14.01,2013-10-11 12:09:00,
2013-10-11 06:10:00,36.3,17.5,29.88,SW,236,0.0,0.0,46,0.00,,---,0.00,VWS V14.01,2013-10-11 12:10:00,
2013-10-11 06:11:00,36.3,18.0,29.88,SW,236,0.0,0.0,47,0.00,,---,0.00,VWS V14.01,2013-10-11 12:11:00,
2013-10-11 06:12:00,36.3,18.0,29.88,SW,236,0.0,0.0,47,0.00,,---,0.00,VWS V14.01,2013-10-11 12:12:00,
2013-10-11 06:15:00,36.3,18.0,29.88,SW,236,0.0,0.0,47,0.00,,---,0.00,VWS V14.01,2013-10-11 12:15:00,
2013-10-11 06:16:00,36.3,17.5,29.88,SW,236,0.0,0.0,46,0.00,,---,0.00,VWS V14.01,2013-10-11 12:16:00,
2013-10-11 06:17:00,36.3,17.5,29.88,NNW,348,0.0,0.0,46,0.00,,---,0.00,VWS V14.01,2013-10-11 12:17:00,
2013-10-11 06:20:00,36.3,17.5,29.88,NNW,348,0.0,0.0,46,0.00,,---,0.00,VWS V14.01,2013-10-11 12:20:00,
2013-10-11 06:21:00,36.3,17.5,29.88,NNW,348,0.0,0.0,46,0.00,,---,0.00,VWS V14.01,2013-10-11 12:21:00,
2013-10-11 06:22:00,36.3,17.5,29.88,NNW,348,0.0,0.0,46,0.00,,---,0.00,VWS V14.01,2013-10-11 12:22:00,
2013-10-11 06:25:00,36.3,18.0,29.88,West,271,0.0,0.0,47,0.00,,---,0.00,VWS V14.01,2013-10-11 12:25:00,
2013-10-11 06:26:00,36.3,18.0,29.88,West,271,0.0,0.0,47,0.00,,---,0.00,VWS V14.01,2013-10-11 12:26:00,
2013-10-11 06:27:00,36.3,18.0,29.88,West,271,0.0,0.0,47,0.00,,---,0.00,VWS V14.01,2013-10-11 12:27:00,
2013-10-11 06:30:00,36.3,17.5,29.88,West,271,0.0,0.0,46,0.00,,---,0.00,VWS V14.01,2013-10-11 12:30:00,
2013-10-11 06:31:00,36.3,17.5,29.88,West,266,0.0,0.0,46,0.00,,---,0.00,VWS V14.01,2013-10-11 12:31:00,
2013-10-11 06:32:00,36.3,17.5,29.88,West,266,0.0,0.0,46,0.00,,---,0.00,VWS V14.01,2013-10-11 12:32:00,
2013-10-11 06:33:00,36.3,17.5,29.88,West,267,0.0,0.0,46,0.00,,---,0.00,VWS V14.01,2013-10-11 12:33:00,
2013-10-11 06:35:00,36.5,17.7,29.88,West,266,0.0,0.0,46,0.00,,---,0.00,VWS V14.01,2013-10-11 12:35:00,
2013-10-11 06:36:00,36.5,17.7,29.88,West,266,0.0,0.0,46,0.00,,---,0.00,VWS V14.01,2013-10-11 12:36:00,
2013-10-11 06:37:00,36.5,17.7,29.88,West,266,0.0,0.0,46,0.00,,---,0.00,VWS V14.01,2013-10-11 12:37:00,
2013-10-11 06:38:00,36.5,17.7,29.88,West,266,0.0,0.0,46,0.00,,---,0.00,VWS V14.01,2013-10-11 12:38:00,
2013-10-11 06:40:00,36.5,17.2,29.88,West,266,0.0,0.0,45,0.00,,---,0.00,VWS V14.01,2013-10-11 12:40:00,
2013-10-11 06:41:00,36.5,17.2,29.88,West,266,0.0,0.0,45,0.00,,---,0.00,VWS V14.01,2013-10-11 12:41:00,
2013-10-11 06:42:00,36.7,17.4,29.88,West,266,0.0,0.0,45,0.00,,---,0.00,VWS V14.01,2013-10-11 12:42:00,
2013-10-11 06:43:00,36.7,17.4,29.88,West,266,0.0,0.0,45,0.00,,---,0.00,VWS V14.01,2013-10-11 12:43:00,
2013-10-11 06:45:00,36.7,17.9,29.88,West,266,0.0,0.0,46,0.00,,,0.00,VWS V15.00,2013-10-11 12:45:00,
2013-10-11 06:46:00,36.7,17.4,29.88,WSW,241,0.0,0.0,45,0.00,,---,0.00,VWS V14.01,2013-10-11 12:46:00,
2013-10-11 06:47:00,36.7,17.4,29.88,WSW,240,0.0,0.0,45,0.00,,---,0.00,VWS V14.01,2013-10-11 12:47:00,
2013-10-11 06:48:00,36.7,17.4,29.88,WSW,240,0.0,0.0,45,0.00,,---,0.00,VWS V14.01,2013-10-11 12:48:00,
2013-10-11 06:49:00,36.7,17.4,29.88,WSW,240,0.0,0.0,45,0.00,,---,0.00,VWS V14.01,2013-10-11 12:49:00,
2013-10-11 06:51:00,36.7,17.4,29.88,WSW,240,0.0,0.0,45,0.00,,---,0.00,VWS V14.01,2013-10-11 12:51:00,
2013-10-11 06:52:00,36.7,17.4,29.88,WSW,240,0.0,0.0,45,0.00,,---,0.00,VWS V14.01,2013-10-11 12:52:00,
2013-10-11 06:53:00,36.7,17.4,29.88,WSW,240,0.0,0.0,45,0.00,,---,0.00,VWS V14.01,2013-10-11 12:53:00,
2013-10-11 06:54:00,36.7,17.4,29.88,WSW,240,0.0,0.0,45,0.00,,---,0.00,VWS V14.01,2013-10-11 12:54:00,
2013-10-11 06:56:00,36.7,17.4,29.88,WSW,240,0.0,0.0,45,0.00,,---,0.00,VWS V14.01,2013-10-11 12:56:00,
2013-10-11 06:57:00,36.7,17.4,29.88,WSW,240,0.0,0.0,45,0.00,,---,0.00,VWS V14.01,2013-10-11 12:57:00,
2013-10-11 06:58:00,36.7,17.4,29.88,WSW,240,0.0,0.0,45,0.00,,---,0.00,VWS V14.01,2013-10-11 12:58:00,
2013-10-11 06:59:00,36.5,17.2,29.88,WSW,240,0.0,0.0,45,0.00,,---,0.00,VWS V14.01,2013-10-11 12:59:00,
2013-10-11 07:00:00,36.5,17.2,29.88,WSW,240,0.0,0.0,45,0.00,,,0.00,VWS V15.00,2013-10-11 13:00:00,
2013-10-11 07:01:00,36.5,17.2,29.88,WSW,240,0.0,0.0,45,0.00,,---,0.00,VWS V14.01,2013-10-11 13:01:00,
2013-10-11 07:03:00,36.5,17.2,29.88,WSW,240,0.0,0.0,45,0.00,,---,0.00,VWS V14.01,2013-10-11 13:03:00,
2013-10-11 07:05:00,36.5,17.2,29.88,WSW,240,0.0,0.0,45,0.00,,---,0.00,VWS V14.01,2013-10-11 13:05:00,
2013-10-11 07:06:00,36.5,17.2,29.88,WSW,240,0.0,0.0,45,0.00,,---,0.00,VWS V14.01,2013-10-11 13:06:00,
2013-10-11 07:07:00,36.5,17.2,29.88,WSW,240,0.0,0.0,45,0.00,,---,0.00,VWS V14.01,2013-10-11 13:07:00,
2013-10-11 07:08:00,36.5,17.2,29.88,WSW,240,0.0,0.0,45,0.00,,---,0.00,VWS V14.01,2013-10-11 13:08:00,
2013-10-11 07:10:00,36.7,17.4,29.88,WSW,240,0.0,0.0,45,0.00,,---,0.00,VWS V14.01,2013-10-11 13:10:00,
2013-10-11 07:11:00,36.7,17.4,29.88,WSW,240,0.0,0.0,45,0.00,,---,0.00,VWS V14.01,2013-10-11 13:11:00,
2013-10-11 07:12:00,36.7,17.4,29.88,South,173,0.0,0.0,45,0.00,,---,0.00,VWS V14.01,2013-10-11 13:12:00,
2013-10-11 07:13:00,36.7,17.4,29.88,South,173,0.0,0.0,45,0.00,,---,0.00,VWS V14.01,2013-10-11 13:13:00,
2013-10-11 07:14:00,36.7,17.4,29.88,South,173,0.0,0.0,45,0.00,,---,0.00,VWS V14.01,2013-10-11 13:14:00,
2013-10-11 07:15:00,36.5,17.7,29.88,South,173,0.0,0.0,46,0.00,,---,0.00,VWS V14.01,2013-10-11 13:15:00,
2013-10-11 07:16:00,36.5,17.7,29.88,South,173,0.0,0.0,46,0.00,,---,0.00,VWS V14.01,2013-10-11 13:16:00,
2013-10-11 07:17:00,36.3,17.5,29.88,South,173,0.0,0.0,46,0.00,,---,0.00,VWS V14.01,2013-10-11 13:17:00,
2013-10-11 07:18:00,36.3,17.5,29.88,South,173,0.0,0.0,46,0.00,,---,0.00,VWS V14.01,2013-10-11 13:18:00,
2013-10-11 07:19:00,36.3,17.5,29.88,South,173,0.0,0.0,46,0.00,,---,0.00,VWS V14.01,2013-10-11 13:19:00,
2013-10-11 07:21:00,36.3,17.5,29.88,South,173,0.0,0.0,46,0.00,,---,0.00,VWS V14.01,2013-10-11 13:21:00,
2013-10-11 07:22:00,36.5,17.7,29.88,South,172,0.0,0.0,46,0.00,,---,0.00,VWS V14.01,2013-10-11 13:22:00,
2013-10-11 07:24:00,36.5,17.7,29.88,South,172,0.0,0.0,46,0.00,,---,0.00,VWS V14.01,2013-10-11 13:24:00,
2013-10-11 07:25:00,36.5,17.7,29.88,South,172,0.0,0.0,46,0.00,,---,0.00,VWS V14.01,2013-10-11 13:25:00,
2013-10-11 07:26:00,36.5,17.7,29.88,South,172,0.0,0.0,46,0.00,,---,0.00,VWS V14.01,2013-10-11 13:26:00,
2013-10-11 07:28:00,36.5,17.7,29.88,South,172,0.0,0.0,46,0.00,,---,0.00,VWS V14.01,2013-10-11 13:28:00,
2013-10-11 07:29:00,36.3,17.5,29.88,South,172,0.0,0.0,46,0.00,,---,0.00,VWS V14.01,2013-10-11 13:29:00,
2013-10-11 07:30:00,36.3,17.5,29.88,South,172,0.0,0.0,46,0.00,,---,0.00,VWS V14.01,2013-10-11 13:30:00,
2013-10-11 07:31:00,36.3,17.5,29.88,South,172,0.0,0.0,46,0.00,,---,0.00,VWS V14.01,2013-10-11 13:31:00,
2013-10-11 07:33:00,36.3,17.5,29.88,South,172,0.0,0.0,46,0.00,,---,0.00,VWS V14.01,2013-10-11 13:33:00,
2013-10-11 07:34:00,36.3,17.5,29.88,South,172,0.0,0.0,46,0.00,,---,0.00,VWS V14.01,2013-10-11 13:34:00,
2013-10-11 07:35:00,36.3,17.5,29.88,South,172,0.0,0.0,46,0.00,,---,0.00,VWS V14.01,2013-10-11 13:35:00,
2013-10-11 07:36:00,36.3,17.5,29.88,South,172,0.0,0.0,46,0.00,,---,0.00,VWS V14.01,2013-10-11 13:36:00,
2013-10-11 07:38:00,36.3,17.5,29.88,South,172,0.0,0.0,46,0.00,,---,0.00,VWS V14.01,2013-10-11 13:38:00,
2013-10-11 07:39:00,36.3,18.0,29.88,South,172,0.0,0.0,47,0.00,,---,0.00,VWS V14.01,2013-10-11 13:39:00,
2013-10-11 07:40:00,36.3,18.0,29.88,South,172,0.0,0.0,47,0.00,,---,0.00,VWS V14.01,2013-10-11 13:40:00,
2013-10-11 07:41:00,36.1,17.9,29.88,South,172,0.0,0.0,47,0.00,,---,0.00,VWS V14.01,2013-10-11 13:41:00,
2013-10-11 07:43:00,36.1,17.9,29.88,South,173,0.0,0.0,47,0.00,,---,0.00,VWS V14.01,2013-10-11 13:43:00,
2013-10-11 07:44:00,36.1,17.9,29.88,South,172,0.0,0.0,47,0.00,,---,0.00,VWS V14.01,2013-10-11 13:44:00,
2013-10-11 07:45:00,36.1,17.4,29.88,South,172,0.0,0.0,46,0.00,,---,0.00,VWS V14.01,2013-10-11 13:45:00,
2013-10-11 07:46:00,36.1,17.4,29.88,South,172,0.0,0.0,46,0.00,,---,0.00,VWS V14.01,2013-10-11 13:46:00,
2013-10-11 07:48:00,36.3,17.5,29.88,South,172,0.0,0.0,46,0.00,,---,0.00,VWS V14.01,2013-10-11 13:48:00,
2013-10-11 07:49:00,36.3,17.0,29.88,South,172,0.0,0.0,45,0.00,,---,0.00,VWS V14.01,2013-10-11 13:49:00,
2013-10-11 07:50:00,36.3,17.5,29.88,South,172,0.0,0.0,46,0.00,,---,0.00,VWS V14.01,2013-10-11 13:50:00,
2013-10-11 07:51:00,36.5,17.7,29.88,South,172,0.0,0.0,46,0.00,,---,0.00,VWS V14.01,2013-10-11 13:51:00,
2013-10-11 07:54:00,36.7,17.9,29.88,South,172,0.0,0.0,46,0.00,,---,0.00,VWS V14.01,2013-10-11 13:54:00,
2013-10-11 07:55:00,36.9,17.5,29.88,South,172,0.0,0.0,45,0.00,,---,0.00,VWS V14.01,2013-10-11 13:55:00,
2013-10-11 07:56:00,36.9,17.5,29.88,South,172,0.0,0.0,45,0.00,,---,0.00,VWS V14.01,2013-10-11 13:56:00,
2013-10-11 07:57:00,36.9,17.5,29.88,South,172,0.0,0.0,45,0.00,,---,0.00,VWS V14.01,2013-10-11 13:57:00,
2013-10-11 07:59:00,36.9,17.5,29.88,South,172,0.0,0.0,45,0.00,,---,0.00,VWS V14.01,2013-10-11 13:59:00,
2013-10-11 08:00:00,36.9,17.5,29.91,South,172,0.0,0.0,45,0.00,,---,0.00,VWS V14.01,2013-10-11 14:00:00,
2013-10-11 08:01:00,36.9,17.5,29.91,South,172,0.0,0.0,45,0.00,,---,0.00,VWS V14.01,2013-10-11 14:01:00,
2013-10-11 08:02:00,36.9,17.5,29.91,South,172,0.0,0.0,45,0.00,,---,0.00,VWS V14.01,2013-10-11 14:02:00,
2013-10-11 08:04:00,36.9,18.0,29.91,South,172,0.0,0.0,46,0.00,,---,0.00,VWS V14.01,2013-10-11 14:04:00,
2013-10-11 08:05:00,36.9,18.0,29.91,South,172,0.0,0.0,46,0.00,,---,0.00,VWS V14.01,2013-10-11 14:05:00,
2013-10-11 08:06:00,36.9,18.0,29.91,South,172,0.0,0.0,46,0.00,,---,0.00,VWS V14.01,2013-10-11 14:06:00,
2013-10-11 08:07:00,36.9,18.0,29.91,South,172,0.0,0.0,46,0.00,,---,0.00,VWS V14.01,2013-10-11 14:07:00,
2013-10-11 08:08:00,36.9,18.0,29.91,South,172,0.0,0.0,46,0.00,,---,0.00,VWS V14.01,2013-10-11 14:08:00,
2013-10-11 08:09:00,37.0,18.2,29.91,South,172,0.0,0.0,46,0.00,,---,0.00,VWS V14.01,2013-10-11 14:09:00,
2013-10-11 08:10:00,37.0,18.2,29.91,South,172,0.0,0.0,46,0.00,,---,0.00,VWS V14.01,2013-10-11 14:10:00,
2013-10-11 08:11:00,37.0,17.7,29.91,South,172,0.0,0.0,45,0.00,,---,0.00,VWS V14.01,2013-10-11 14:11:00,
2013-10-11 08:12:00,37.0,17.7,29.91,South,172,0.0,0.0,45,0.00,,---,0.00,VWS V14.01,2013-10-11 14:12:00,
2013-10-11 08:13:00,37.0,17.7,29.91,South,172,0.0,0.0,45,0.00,,---,0.00,VWS V14.01,2013-10-11 14:13:00,
2013-10-11 08:15:00,37.2,17.9,29.91,South,172,0.0,0.0,45,0.00,,---,0.00,VWS V14.01,2013-10-11 14:15:00,
2013-10-11 08:16:00,37.2,17.9,29.91,South,172,0.0,0.0,45,0.00,,---,0.00,VWS V14.01,2013-10-11 14:16:00,
2013-10-11 08:17:00,37.2,17.9,29.91,South,172,0.0,0.0,45,0.00,,---,0.00,VWS V14.01,2013-10-11 14:17:00,
2013-10-11 08:18:00,37.4,17.5,29.91,South,172,0.0,0.0,44,0.00,,---,0.00,VWS V14.01,2013-10-11 14:18:00,
2013-10-11 08:20:00,37.4,17.5,29.91,South,172,0.0,0.0,44,0.00,,---,0.00,VWS V14.01,2013-10-11 14:20:00,
2013-10-11 08:21:00,37.6,17.7,29.91,South,172,0.0,0.0,44,0.00,,---,0.00,VWS V14.01,2013-10-11 14:21:00,
2013-10-11 08:22:00,37.6,17.7,29.91,South,172,0.0,0.0,44,0.00,,---,0.00,VWS V14.01,2013-10-11 14:22:00,
2013-10-11 08:23:00,37.8,17.8,29.91,South,172,0.0,0.0,44,0.00,,---,0.00,VWS V14.01,2013-10-11 14:23:00,
2013-10-11 08:25:00,38.1,17.6,29.91,South,172,0.0,0.0,43,0.00,,---,0.00,VWS V14.01,2013-10-11 14:25:00,
2013-10-11 08:26:00,38.1,18.1,29.91,South,172,0.0,0.0,44,0.00,,---,0.00,VWS V14.01,2013-10-11 14:26:00,
2013-10-11 08:27:00,38.3,17.8,29.91,South,172,0.0,0.0,43,0.00,,---,0.00,VWS V14.01,2013-10-11 14:27:00,
2013-10-11 08:28:00,38.5,17.9,29.91,South,172,0.0,0.0,43,0.00,,---,0.00,VWS V14.01,2013-10-11 14:28:00,
2013-10-11 08:30:00,38.7,17.6,29.91,South,172,0.0,0.0,42,0.00,,---,0.00,VWS V14.01,2013-10-11 14:30:00,
2013-10-11 08:31:00,38.8,17.7,29.91,South,172,0.0,0.0,42,0.00,,---,0.00,VWS V14.01,2013-10-11 14:31:00,
2013-10-11 08:32:00,38.8,17.7,29.91,South,172,0.0,0.0,42,0.00,,---,0.00,VWS V14.01,2013-10-11 14:32:00,
2013-10-11 08:34:00,39.0,17.9,29.91,South,172,0.0,0.0,42,0.00,,---,0.00,VWS V14.01,2013-10-11 14:34:00,
2013-10-11 08:36:00,39.2,18.0,29.91,South,172,0.0,0.0,42,0.00,,---,0.00,VWS V14.01,2013-10-11 14:36:00,
2013-10-11 08:37:00,39.2,18.0,29.91,South,172,0.0,0.0,42,0.00,,---,0.00,VWS V14.01,2013-10-11 14:37:00,
2013-10-11 08:39:00,39.2,17.5,29.91,South,172,0.0,0.0,41,0.00,,---,0.00,VWS V14.01,2013-10-11 14:39:00,
2013-10-11 08:41:00,39.2,18.0,29.91,South,172,0.0,0.0,42,0.00,,---,0.00,VWS V14.01,2013-10-11 14:41:00,
2013-10-11 08:42:00,39.2,18.0,29.91,South,172,0.0,0.0,42,0.00,,---,0.00,VWS V14.01,2013-10-11 14:42:00,
2013-10-11 08:43:00,39.0,17.9,29.91,South,172,0.0,0.0,42,0.00,,---,0.00,VWS V14.01,2013-10-11 14:43:00,
2013-10-11 08:44:00,39.0,17.9,29.91,South,172,0.0,0.0,42,0.00,,---,0.00,VWS V14.01,2013-10-11 14:44:00,
2013-10-11 08:45:00,39.0,17.9,29.91,South,172,0.0,0.0,42,0.00,,,0.00,VWS V15.00,2013-10-11 14:45:00,
2013-10-11 08:46:00,38.8,17.7,29.91,South,172,0.0,0.0,42,0.00,,---,0.00,VWS V14.01,2013-10-11 14:46:00,
2013-10-11 08:47:00,38.8,17.7,29.91,South,172,0.0,0.0,42,0.00,,---,0.00,VWS V14.01,2013-10-11 14:47:00,
2013-10-11 08:48:00,38.8,17.7,29.91,South,172,0.0,0.0,42,0.00,,---,0.00,VWS V14.01,2013-10-11 14:48:00,
2013-10-11 08:49:00,38.8,17.7,29.91,South,172,0.0,0.0,42,0.00,,---,0.00,VWS V14.01,2013-10-11 14:49:00,
2013-10-11 08:51:00,38.7,17.6,29.91,South,172,0.0,0.0,42,0.00,,---,0.00,VWS V14.01,2013-10-11 14:51:00,
2013-10-11 08:52:00,38.7,17.6,29.91,South,172,0.0,0.0,42,0.00,,---,0.00,VWS V14.01,2013-10-11 14:52:00,
2013-10-11 08:53:00,38.7,17.6,29.91,South,172,0.0,0.0,42,0.00,,---,0.00,VWS V14.01,2013-10-11 14:53:00,
2013-10-11 08:54:00,38.7,17.6,29.91,South,172,0.0,0.0,42,0.00,,---,0.00,VWS V14.01,2013-10-11 14:54:00,
2013-10-11 08:56:00,38.7,17.6,29.91,South,172,0.0,0.0,42,0.00,,---,0.00,VWS V14.01,2013-10-11 14:56:00,
2013-10-11 08:57:00,38.5,17.4,29.91,South,172,0.0,0.0,42,0.00,,---,0.00,VWS V14.01,2013-10-11 14:57:00,
2013-10-11 08:58:00,38.5,17.4,29.91,South,172,0.0,0.0,42,0.00,,---,0.00,VWS V14.01,2013-10-11 14:58:00,
2013-10-11 09:00:00,38.7,18.1,29.91,South,172,0.0,0.0,43,0.00,,---,0.00,VWS V14.01,2013-10-11 15:00:00,
2013-10-11 09:01:00,38.5,17.9,29.91,South,172,0.0,0.0,43,0.00,,---,0.00,VWS V14.01,2013-10-11 15:01:00,
2013-10-11 09:02:00,38.5,17.9,29.91,South,172,0.0,0.0,43,0.00,,---,0.00,VWS V14.01,2013-10-11 15:02:00,
2013-10-11 09:03:00,38.5,17.9,29.91,South,172,0.0,0.0,43,0.00,,---,0.00,VWS V14.01,2013-10-11 15:03:00,
2013-10-11 09:05:00,38.5,18.5,29.91,South,172,0.0,0.0,44,0.00,,---,0.00,VWS V14.01,2013-10-11 15:05:00,
2013-10-11 09:06:00,38.5,18.5,29.91,South,172,0.0,0.0,44,0.00,,---,0.00,VWS V14.01,2013-10-11 15:06:00,
2013-10-11 09:07:00,38.5,18.5,29.91,South,172,0.0,0.0,44,0.00,,---,0.00,VWS V14.01,2013-10-11 15:07:00,
2013-10-11 09:08:00,38.5,18.5,29.91,South,172,0.0,0.0,44,0.00,,---,0.00,VWS V14.01,2013-10-11 15:08:00,
2013-10-11 09:10:00,38.7,19.2,29.91,South,172,0.0,0.0,45,0.00,,---,0.00,VWS V14.01,2013-10-11 15:10:00,
2013-10-11 09:11:00,38.7,18.6,29.91,South,172,0.0,0.0,44,0.00,,---,0.00,VWS V14.01,2013-10-11 15:11:00,
2013-10-11 09:12:00,38.7,18.6,29.91,South,171,0.0,0.0,44,0.00,,---,0.00,VWS V14.01,2013-10-11 15:12:00,
2013-10-11 09:13:00,38.7,18.6,29.91,South,172,0.0,0.0,44,0.00,,---,0.00,VWS V14.01,2013-10-11 15:13:00,
2013-10-11 09:15:00,38.7,18.6,29.91,South,172,0.0,0.0,44,0.00,,---,0.00,VWS V14.01,2013-10-11 15:15:00,
2013-10-11 09:17:00,38.7,18.6,29.91,South,172,0.0,0.0,44,0.00,,---,0.00,VWS V14.01,2013-10-11 15:17:00,
2013-10-11 09:18:00,38.7,18.6,29.91,South,172,0.0,0.0,44,0.00,,---,0.00,VWS V14.01,2013-10-11 15:18:00,
2013-10-11 09:21:00,38.7,18.6,29.91,South,172,0.0,0.0,44,0.00,,---,0.00,VWS V14.01,2013-10-11 15:21:00,
2013-10-11 09:22:00,38.7,18.6,29.91,South,172,0.0,0.0,44,0.00,,---,0.00,VWS V14.01,2013-10-11 15:22:00,
2013-10-11 09:23:00,38.7,18.6,29.91,South,172,0.0,0.0,44,0.00,,---,0.00,VWS V14.01,2013-10-11 15:23:00,
2013-10-11 09:24:00,38.8,18.8,29.91,South,172,0.0,0.0,44,0.00,,---,0.00,VWS V14.01,2013-10-11 15:24:00,
2013-10-11 09:26:00,38.8,18.8,29.91,South,172,0.0,0.0,44,0.00,,---,0.00,VWS V14.01,2013-10-11 15:26:00,
2013-10-11 09:27:00,38.8,18.8,29.91,South,172,0.0,0.0,44,0.00,,---,0.00,VWS V14.01,2013-10-11 15:27:00,
2013-10-11 09:28:00,38.8,18.8,29.91,South,172,0.0,0.0,44,0.00,,---,0.00,VWS V14.01,2013-10-11 15:28:00,
2013-10-11 09:29:00,38.8,18.8,29.91,South,172,0.0,0.0,44,0.00,,---,0.00,VWS V14.01,2013-10-11 15:29:00,
2013-10-11 09:30:00,38.8,18.8,29.91,South,172,0.0,0.0,44,0.00,,,0.00,VWS V15.00,2013-10-11 15:30:00,
2013-10-11 09:31:00,39.0,19.0,29.91,South,172,0.0,0.0,44,0.00,,---,0.00,VWS V14.01,2013-10-11 15:31:00,
2013-10-11 09:32:00,39.0,18.4,29.91,South,172,0.0,0.0,43,0.00,,---,0.00,VWS V14.01,2013-10-11 15:32:00,
2013-10-11 09:33:00,39.0,18.4,29.91,South,172,0.0,0.0,43,0.00,,---,0.00,VWS V14.01,2013-10-11 15:33:00,
2013-10-11 09:34:00,39.2,18.6,29.91,South,172,0.0,0.0,43,0.00,,---,0.00,VWS V14.01,2013-10-11 15:34:00,
2013-10-11 09:37:00,39.4,18.8,29.91,South,172,0.0,0.0,43,0.00,,---,0.00,VWS V14.01,2013-10-11 15:37:00,
2013-10-11 09:38:00,39.4,18.2,29.91,South,172,0.0,0.0,42,0.00,,---,0.00,VWS V14.01,2013-10-11 15:38:00,
2013-10-11 09:39:00,39.4,17.7,29.91,West,259,0.0,0.0,41,0.00,,---,0.00,VWS V14.01,2013-10-11 15:39:00,
2013-10-11 09:42:00,39.7,18.5,29.91,SW,220,0.0,0.0,42,0.00,,---,0.00,VWS V14.01,2013-10-11 15:42:00,
2013-10-11 09:43:00,39.6,17.8,29.91,SW,236,0.0,0.0,41,0.00,,---,0.00,VWS V14.01,2013-10-11 15:43:00,
2013-10-11 09:44:00,39.7,18.0,29.91,SW,236,0.0,0.0,41,0.00,,---,0.00,VWS V14.01,2013-10-11 15:44:00,
2013-10-11 09:45:00,39.7,18.0,29.91,SW,227,0.0,0.0,41,0.00,,,0.00,VWS V15.00,2013-10-11 15:45:00,
2013-10-11 09:47:00,39.7,18.0,29.91,SW,236,0.0,0.0,41,0.00,,---,0.00,VWS V14.01,2013-10-11 15:47:00,
2013-10-11 09:49:00,39.9,17.6,29.91,SW,235,0.0,0.0,40,0.00,,---,0.00,VWS V14.01,2013-10-11 15:49:00,
2013-10-11 09:52:00,39.9,17.6,29.91,West,272,0.0,0.0,40,0.00,,---,0.00,VWS V14.01,2013-10-11 15:52:00,
2013-10-11 09:54:00,40.1,17.7,29.91,West,276,2.7,2.7,40,0.00,,---,0.00,VWS V14.01,2013-10-11 15:54:00,
2013-10-11 09:57:00,40.3,17.3,29.91,North,6,3.1,3.1,39,0.00,,---,0.00,VWS V14.01,2013-10-11 15:57:00,
2013-10-11 09:58:00,40.3,17.9,29.91,NW,320,2.7,3.1,40,0.00,,---,0.00,VWS V14.01,2013-10-11 15:58:00,
2013-10-11 09:59:00,40.3,17.3,29.91,NW,316,4.0,5.4,39,0.00,,---,0.00,VWS V14.01,2013-10-11 15:59:00,
2013-10-11 10:00:00,40.3,17.3,29.91,SSE,158,2.7,4.0,39,0.00,,---,0.00,VWS V14.01,2013-10-11 16:00:00,
2013-10-11 10:03:00,40.3,17.3,29.91,West,279,4.9,4.9,39,0.00,,---,0.00,VWS V14.01,2013-10-11 16:03:00,
2013-10-11 10:04:00,40.5,17.5,29.91,NW,314,4.0,4.0,39,0.00,,---,0.00,VWS V14.01,2013-10-11 16:04:00,
2013-10-11 10:05:00,40.5,17.5,29.91,West,272,3.6,3.6,39,0.00,,---,0.00,VWS V14.01,2013-10-11 16:05:00,
2013-10-11 10:08:00,40.5,17.5,29.91,West,281,3.1,3.1,39,0.00,,---,0.00,VWS V14.01,2013-10-11 16:08:00,
2013-10-11 10:09:00,40.5,17.5,29.91,WNW,291,3.6,3.6,39,0.00,,---,0.00,VWS V14.01,2013-10-11 16:09:00,
2013-10-11 10:10:00,40.5,17.5,29.91,WNW,299,2.7,2.7,39,0.00,,---,0.00,VWS V14.01,2013-10-11 16:10:00,
2013-10-11 10:13:00,40.6,17.6,29.91,WNW,294,3.1,4.0,39,0.00,,---,0.00,VWS V14.01,2013-10-11 16:13:00,
2013-10-11 10:14:00,40.6,17.6,29.91,NNW,340,3.6,3.6,39,0.00,,---,0.00,VWS V14.01,2013-10-11 16:14:00,
2013-10-11 10:15:00,40.6,17.6,29.91,WNW,300,3.1,4.9,39,0.00,,---,0.00,VWS V14.01,2013-10-11 16:15:00,
2013-10-11 10:18:00,40.8,17.8,29.91,West,280,4.0,4.0,39,0.00,,---,0.00,VWS V14.01,2013-10-11 16:18:00,
2013-10-11 10:19:00,41.0,17.4,29.91,NW,325,3.6,3.6,38,0.00,,---,0.00,VWS V14.01,2013-10-11 16:19:00,
2013-10-11 10:20:00,41.0,17.4,29.91,NNW,331,0.0,2.2,38,0.00,,---,0.00,VWS V14.01,2013-10-11 16:20:00,
2013-10-11 10:23:00,41.0,17.4,29.91,NW,315,3.1,3.6,38,0.00,,---,0.00,VWS V14.01,2013-10-11 16:23:00,
2013-10-11 10:24:00,41.0,17.4,29.91,North,353,2.7,3.1,38,0.00,,---,0.00,VWS V14.01,2013-10-11 16:24:00,
2013-10-11 10:25:00,41.0,17.4,29.91,WNW,292,3.1,3.6,38,0.00,,---,0.00,VWS V14.01,2013-10-11 16:25:00,
2013-10-11 10:28:00,41.0,17.4,29.91,West,274,0.0,3.1,38,0.00,,---,0.00,VWS V14.01,2013-10-11 16:28:00,
2013-10-11 10:29:00,41.0,17.4,29.91,West,274,3.1,3.1,38,0.00,,---,0.00,VWS V14.01,2013-10-11 16:29:00,
2013-10-11 10:30:00,41.0,17.4,29.91,WNW,295,4.0,4.0,38,0.00,,---,0.00,VWS V14.01,2013-10-11 16:30:00,
2013-10-11 10:31:00,40.8,16.6,29.91,North,353,3.6,3.6,37,0.00,,---,0.00,VWS V14.01,2013-10-11 16:31:00,
2013-10-11 10:33:00,40.6,16.4,29.91,West,278,3.6,3.6,37,0.00,,---,0.00,VWS V14.01,2013-10-11 16:33:00,
2013-10-11 10:34:00,40.5,16.3,29.91,West,277,4.0,4.0,37,0.00,,---,0.00,VWS V14.01,2013-10-11 16:34:00,
2013-10-11 10:35:00,40.3,16.1,29.91,West,269,2.7,2.7,37,0.00,,---,0.00,VWS V14.01,2013-10-11 16:35:00,
2013-10-11 10:37:00,40.3,16.1,29.91,West,267,2.2,3.6,37,0.00,,---,0.00,VWS V14.01,2013-10-11 16:37:00,
2013-10-11 10:39:00,40.1,15.9,29.91,SSW,213,3.1,3.1,37,0.00,,---,0.00,VWS V14.01,2013-10-11 16:39:00,
2013-10-11 10:41:00,39.9,16.4,29.91,West,274,5.4,5.4,38,0.00,,---,0.00,VWS V14.01,2013-10-11 16:41:00,
2013-10-11 10:42:00,39.9,15.8,29.91,WNW,284,3.1,3.1,37,0.00,,---,0.00,VWS V14.01,2013-10-11 16:42:00,
2013-10-11 10:44:00,39.9,16.4,29.91,SSW,200,4.9,4.9,38,0.00,,---,0.00,VWS V14.01,2013-10-11 16:44:00,
2013-10-11 10:45:00,39.9,16.4,29.91,SW,236,3.1,3.1,38,0.00,,,0.00,VWS V15.00,2013-10-11 16:45:00,
2013-10-11 10:46:00,40.1,16.5,29.94,WSW,258,4.0,4.0,38,0.00,,---,0.00,VWS V14.01,2013-10-11 16:46:00,
2013-10-11 10:47:00,40.3,16.7,29.94,WSW,256,3.1,3.1,38,0.00,,---,0.00,VWS V14.01,2013-10-11 16:47:00,
2013-10-11 10:49:00,40.5,16.3,29.94,WNW,291,2.7,3.6,37,0.00,,---,0.00,VWS V14.01,2013-10-11 16:49:00,
2013-10-11 10:51:00,40.6,16.4,29.94,WNW,288,0.0,0.0,37,0.00,,---,0.00,VWS V14.01,2013-10-11 16:51:00,
2013-10-11 10:54:00,41.2,16.9,29.94,WNW,292,3.1,5.4,37,0.00,,---,0.00,VWS V14.01,2013-10-11 16:54:00,
2013-10-11 10:55:00,41.4,16.4,29.94,WNW,286,3.6,3.6,36,0.00,,---,0.00,VWS V14.01,2013-10-11 16:55:00,
2013-10-11 10:56:00,41.5,15.9,29.94,West,277,3.1,3.1,35,0.00,,---,0.00,VWS V14.01,2013-10-11 16:56:00,
2013-10-11 10:57:00,41.5,15.9,29.94,West,273,3.6,3.6,35,0.00,,---,0.00,VWS V14.01,2013-10-11 16:57:00,
2013-10-11 10:59:00,41.5,15.3,29.94,NNW,339,4.0,4.0,34,0.00,,---,0.00,VWS V14.01,2013-10-11 16:59:00,
2013-10-11 11:00:00,41.5,15.3,29.94,WNW,291,4.0,4.0,34,0.00,,---,0.00,VWS V14.01,2013-10-11 17:00:00,
2013-10-11 11:02:00,41.5,15.3,29.94,West,271,3.1,3.6,34,0.00,,---,0.00,VWS V14.01,2013-10-11 17:02:00,
2013-10-11 11:04:00,42.1,16.4,29.94,West,281,2.7,3.6,35,0.00,,---,0.00,VWS V14.01,2013-10-11 17:04:00,
2013-10-11 11:05:00,42.1,16.4,29.94,WNW,288,3.6,3.6,35,0.00,,---,0.00,VWS V14.01,2013-10-11 17:05:00,
2013-10-11 11:07:00,42.3,15.9,29.94,WNW,284,2.2,2.7,34,0.00,,---,0.00,VWS V14.01,2013-10-11 17:07:00,
2013-10-11 11:10:00,42.6,14.8,29.94,WNW,286,4.0,4.0,32,0.00,,---,0.00,VWS V14.01,2013-10-11 17:10:00,
2013-10-11 11:12:00,43.0,15.2,29.94,WNW,287,4.9,5.4,32,0.00,,---,0.00,VWS V14.01,2013-10-11 17:12:00,
2013-10-11 11:15:00,43.2,16.0,29.91,West,278,3.1,3.1,33,0.00,,---,0.00,VWS V14.01,2013-10-11 17:15:00,
2013-10-11 11:17:00,43.5,15.6,29.91,West,278,4.0,6.3,32,0.00,,---,0.00,VWS V14.01,2013-10-11 17:17:00,
2013-10-11 11:20:00,43.7,15.8,29.91,West,273,4.0,4.0,32,0.00,,---,0.00,VWS V14.01,2013-10-11 17:20:00,
2013-10-11 11:22:00,43.7,15.1,29.91,WNW,293,3.1,6.3,31,0.00,,---,0.00,VWS V14.01,2013-10-11 17:22:00,
2013-10-11 11:25:00,43.9,15.2,29.91,WSW,237,3.1,3.1,31,0.00,,---,0.00,VWS V14.01,2013-10-11 17:25:00,
2013-10-11 11:26:00,44.1,15.4,29.91,West,266,4.0,4.0,31,0.00,,---,0.00,VWS V14.01,2013-10-11 17:26:00,
2013-10-11 11:27:00,44.1,15.4,29.91,West,275,5.4,5.4,31,0.00,,---,0.00,VWS V14.01,2013-10-11 17:27:00,
2013-10-11 11:30:00,44.2,15.5,29.91,West,273,3.1,3.6,31,0.00,,---,0.00,VWS V14.01,2013-10-11 17:30:00,
2013-10-11 11:31:00,44.2,15.5,29.91,West,262,3.1,6.3,31,0.00,,---,0.00,VWS V14.01,2013-10-11 17:31:00,
2013-10-11 11:32:00,44.1,14.6,29.91,WNW,284,5.4,5.4,30,0.00,,---,0.00,VWS V14.01,2013-10-11 17:32:00,
2013-10-11 11:33:00,44.1,14.6,29.91,WNW,284,5.4,5.4,30,0.00,,---,0.00,VWS V14.01,2013-10-11 17:33:00,
2013-10-11 11:35:00,44.1,15.4,29.91,WNW,285,5.4,5.4,31,0.00,,---,0.00,VWS V14.01,2013-10-11 17:35:00,
2013-10-11 11:36:00,44.1,15.4,29.91,West,278,2.7,2.7,31,0.00,,---,0.00,VWS V14.01,2013-10-11 17:36:00,
2013-10-11 11:37:00,44.1,15.4,29.91,West,277,2.7,3.1,31,0.00,,---,0.00,VWS V14.01,2013-10-11 17:37:00,
2013-10-11 11:39:00,44.1,14.6,29.91,NNW,327,3.1,5.4,30,0.00,,---,0.00,VWS V14.01,2013-10-11 17:39:00,
2013-10-11 11:40:00,44.1,14.6,29.91,NNW,340,3.6,4.0,30,0.00,,---,0.00,VWS V14.01,2013-10-11 17:40:00,
2013-10-11 11:41:00,44.1,14.6,29.91,WNW,297,2.7,3.6,30,0.00,,---,0.00,VWS V14.01,2013-10-11 17:41:00,
2013-10-11 11:42:00,44.1,14.6,29.91,WNW,297,3.1,4.0,30,0.00,,---,0.00,VWS V14.01,2013-10-11 17:42:00,
2013-10-11 11:44:00,43.7,14.3,29.91,NW,307,3.6,3.6,30,0.00,,---,0.00,VWS V14.01,2013-10-11 17:44:00,
2013-10-11 11:45:00,43.5,14.2,29.91,WNW,294,3.1,4.0,30,0.00,,---,0.00,VWS V14.01,2013-10-11 17:45:00,
2013-10-11 11:46:00,43.5,14.2,29.91,WNW,294,3.6,4.0,30,0.00,,---,0.00,VWS V14.01,2013-10-11 17:46:00,
2013-10-11 11:47:00,43.2,13.8,29.91,WNW,284,3.1,3.6,30,0.00,,---,0.00,VWS V14.01,2013-10-11 17:47:00,
2013-10-11 11:49:00,43.0,13.7,29.91,NW,304,2.7,2.7,30,0.00,,---,0.00,VWS V14.01,2013-10-11 17:49:00,
2013-10-11 11:50:00,42.6,13.4,29.91,WNW,283,3.6,4.0,30,0.00,,---,0.00,VWS V14.01,2013-10-11 17:50:00,
2013-10-11 11:51:00,42.4,13.2,29.91,WNW,283,3.6,4.0,30,0.00,,---,0.00,VWS V14.01,2013-10-11 17:51:00,
2013-10-11 11:52:00,42.4,13.2,29.91,WNW,299,2.7,4.0,30,0.00,,---,0.00,VWS V14.01,2013-10-11 17:52:00,
2013-10-11 11:53:00,42.4,13.2,29.91,NW,309,2.7,3.1,30,0.00,,---,0.00,VWS V14.01,2013-10-11 17:53:00,
2013-10-11 11:54:00,42.4,14.0,29.91,WNW,298,0.0,0.0,31,0.00,,---,0.00,VWS V14.01,2013-10-11 17:54:00,
2013-10-11 11:55:00,42.4,14.7,29.91,West,264,3.6,4.9,32,0.00,,---,0.00,VWS V14.01,2013-10-11 17:55:00,
2013-10-11 11:56:00,42.4,14.0,29.91,West,264,0.0,3.6,31,0.00,,---,0.00,VWS V14.01,2013-10-11 17:56:00,
2013-10-11 11:57:00,42.6,14.1,29.91,WNW,295,3.6,3.6,31,0.00,,---,0.00,VWS V14.01,2013-10-11 17:57:00,
2013-10-11 11:58:00,42.6,14.1,29.91,WNW,299,2.7,3.1,31,0.00,,---,0.00,VWS V14.01,2013-10-11 17:58:00,
2013-10-11 11:59:00,42.8,13.5,29.91,NW,307,3.1,4.0,30,0.00,,---,0.00,VWS V14.01,2013-10-11 17:59:00,
2013-10-11 12:00:00,42.8,13.5,29.91,NW,305,3.6,3.6,30,0.00,,,0.00,VWS V15.00,2013-10-11 18:00:00,
2013-10-11 12:01:00,42.8,13.5,29.91,WNW,302,2.7,3.6,30,0.00,,---,0.00,VWS V14.01,2013-10-11 18:01:00,
2013-10-11 12:02:00,42.6,13.4,29.91,WNW,303,2.7,2.7,30,0.00,,---,0.00,VWS V14.01,2013-10-11 18:02:00,
2013-10-11 12:03:00,42.6,13.4,29.91,NW,318,3.1,3.1,30,0.00,,---,0.00,VWS V14.01,2013-10-11 18:03:00,
2013-10-11 12:04:00,42.6,13.4,29.91,NNW,331,2.7,2.7,30,0.00,,---,0.00,VWS V14.01,2013-10-11 18:04:00,
2013-10-11 12:05:00,42.4,13.2,29.91,NW,308,0.0,2.7,30,0.00,,---,0.00,VWS V14.01,2013-10-11 18:05:00,
2013-10-11 12:06:00,42.4,13.2,29.91,NW,312,0.0,0.0,30,0.00,,---,0.00,VWS V14.01,2013-10-11 18:06:00,
2013-10-11 12:07:00,42.3,13.1,29.91,West,275,3.6,3.6,30,0.00,,---,0.00,VWS V14.01,2013-10-11 18:07:00,
2013-10-11 12:09:00,42.1,12.9,29.91,WNW,284,3.6,3.6,30,0.00,,---,0.00,VWS V14.01,2013-10-11 18:09:00,
2013-10-11 12:10:00,42.1,12.9,29.91,West,276,3.6,3.6,30,0.00,,---,0.00,VWS V14.01,2013-10-11 18:10:00,
2013-10-11 12:11:00,42.1,12.9,29.91,WNW,290,3.6,4.0,30,0.00,,---,0.00,VWS V14.01,2013-10-11 18:11:00,
2013-10-11 12:12:00,42.1,12.9,29.91,WNW,293,2.7,3.6,30,0.00,,---,0.00,VWS V14.01,2013-10-11 18:12:00,
2013-10-11 12:14:00,41.9,12.7,29.91,WNW,287,2.2,2.7,30,0.00,,---,0.00,VWS V14.01,2013-10-11 18:14:00,
2013-10-11 12:15:00,41.9,12.7,29.91,West,266,0.0,0.0,30,0.00,,---,0.00,VWS V14.01,2013-10-11 18:15:00,
2013-10-11 12:16:00,41.9,12.7,29.91,WNW,288,3.6,3.6,30,0.00,,---,0.00,VWS V14.01,2013-10-11 18:16:00,
2013-10-11 12:17:00,41.9,12.7,29.91,WNW,286,3.1,3.1,30,0.00,,---,0.00,VWS V14.01,2013-10-11 18:17:00,
2013-10-11 12:19:00,42.1,13.6,29.91,WSW,246,3.1,3.1,31,0.00,,---,0.00,VWS V14.01,2013-10-11 18:19:00,
2013-10-11 12:20:00,42.3,13.8,29.91,WSW,245,0.0,2.7,31,0.00,,---,0.00,VWS V14.01,2013-10-11 18:20:00,
2013-10-11 12:21:00,42.3,13.8,29.91,WSW,245,0.0,0.0,31,0.00,,---,0.00,VWS V14.01,2013-10-11 18:21:00,
2013-10-11 12:22:00,42.4,14.0,29.91,WSW,245,0.0,0.0,31,0.00,,---,0.00,VWS V14.01,2013-10-11 18:22:00,
2013-10-11 12:23:00,42.6,14.1,29.91,SW,222,4.0,4.0,31,0.00,,---,0.00,VWS V14.01,2013-10-11 18:23:00,
2013-10-11 12:24:00,43.2,14.6,29.91,SW,229,0.0,0.0,31,0.00,,---,0.00,VWS V14.01,2013-10-11 18:24:00,
2013-10-11 12:26:00,43.5,14.9,29.91,WNW,293,3.6,3.6,31,0.00,,---,0.00,VWS V14.01,2013-10-11 18:26:00,
2013-10-11 12:27:00,44.1,14.6,29.91,NW,305,2.7,3.1,30,0.00,,---,0.00,VWS V14.01,2013-10-11 18:27:00,
2013-10-11 12:28:00,44.2,14.8,29.91,NNE,16,6.3,6.3,30,0.00,,---,0.00,VWS V14.01,2013-10-11 18:28:00,
2013-10-11 12:29:00,44.6,14.3,29.91,WNW,296,3.6,5.4,29,0.00,,---,0.00,VWS V14.01,2013-10-11 18:29:00,
2013-10-11 12:30:00,44.8,14.5,29.91,WNW,298,2.2,3.6,29,0.00,,---,0.00,VWS V14.01,2013-10-11 18:30:00,
2013-10-11 12:31:00,44.8,14.5,29.91,WNW,294,4.0,4.0,29,0.00,,---,0.00,VWS V14.01,2013-10-11 18:31:00,
2013-10-11 12:32:00,44.8,14.5,29.91,NW,319,3.1,3.1,29,0.00,,---,0.00,VWS V14.01,2013-10-11 18:32:00,
2013-10-11 12:33:00,44.8,13.7,29.91,NW,314,2.7,2.7,28,0.00,,---,0.00,VWS V14.01,2013-10-11 18:33:00,
2013-10-11 12:35:00,44.8,14.5,29.91,WNW,297,4.0,4.0,29,0.00,,---,0.00,VWS V14.01,2013-10-11 18:35:00,
2013-10-11 12:36:00,44.8,14.5,29.91,West,278,2.7,2.7,29,0.00,,---,0.00,VWS V14.01,2013-10-11 18:36:00,
2013-10-11 12:37:00,44.8,14.5,29.91,NNW,339,3.1,3.1,29,0.00,,---,0.00,VWS V14.01,2013-10-11 18:37:00,
2013-10-11 12:38:00,44.8,14.5,29.91,WNW,283,2.2,2.7,29,0.00,,---,0.00,VWS V14.01,2013-10-11 18:38:00,
2013-10-11 12:40:00,44.8,14.5,29.91,NNW,334,3.1,4.9,29,0.00,,---,0.00,VWS V14.01,2013-10-11 18:40:00,
2013-10-11 12:41:00,44.8,14.5,29.91,NW,310,2.7,3.1,29,0.00,,---,0.00,VWS V14.01,2013-10-11 18:41:00,
2013-10-11 12:42:00,44.8,14.5,29.91,NNW,341,2.7,3.1,29,0.00,,---,0.00,VWS V14.01,2013-10-11 18:42:00,
2013-10-11 12:43:00,44.6,14.3,29.91,NW,326,2.7,2.7,29,0.00,,---,0.00,VWS V14.01,2013-10-11 18:43:00,
2013-10-11 12:45:00,44.6,14.3,29.91,NNW,333,3.1,3.1,29,0.00,,---,0.00,VWS V14.01,2013-10-11 18:45:00,
2013-10-11 12:46:00,44.4,14.9,29.91,NW,315,2.7,3.1,30,0.00,,---,0.00,VWS V14.01,2013-10-11 18:46:00,
2013-10-11 12:47:00,44.2,14.8,29.91,NW,309,2.7,2.7,30,0.00,,---,0.00,VWS V14.01,2013-10-11 18:47:00,
2013-10-11 12:49:00,44.2,14.8,29.91,WNW,301,0.0,3.6,30,0.00,,---,0.00,VWS V14.01,2013-10-11 18:49:00,
2013-10-11 12:50:00,44.1,13.9,29.91,NNW,328,3.6,3.6,29,0.00,,---,0.00,VWS V14.01,2013-10-11 18:50:00,
2013-10-11 12:51:00,44.1,13.9,29.91,NW,310,2.2,3.6,29,0.00,,---,0.00,VWS V14.01,2013-10-11 18:51:00,
2013-10-11 12:52:00,43.9,13.7,29.91,WNW,286,3.1,3.1,29,0.00,,---,0.00,VWS V14.01,2013-10-11 18:52:00,
2013-10-11 12:54:00,43.7,14.3,29.91,WNW,284,3.6,3.6,30,0.00,,---,0.00,VWS V14.01,2013-10-11 18:54:00,
2013-10-11 12:55:00,43.7,13.5,29.91,West,264,3.1,4.0,29,0.00,,---,0.00,VWS V14.01,2013-10-11 18:55:00,
2013-10-11 12:56:00,43.7,13.5,29.91,West,280,2.7,3.1,29,0.00,,---,0.00,VWS V14.01,2013-10-11 18:56:00,
2013-10-11 12:57:00,43.7,13.5,29.91,WNW,293,3.6,3.6,29,0.00,,---,0.00,VWS V14.01,2013-10-11 18:57:00,
2013-10-11 12:58:00,43.7,13.5,29.91,NW,320,0.0,2.2,29,0.00,,---,0.00,VWS V14.01,2013-10-11 18:58:00,
2013-10-11 13:00:00,43.7,13.5,29.91,North,0,3.1,3.1,29,0.00,,---,0.00,VWS V14.01,2013-10-11 19:00:00,
2013-10-11 13:01:00,43.7,13.5,29.91,NW,306,0.0,2.2,29,0.00,,---,0.00,VWS V14.01,2013-10-11 19:01:00,
2013-10-11 13:02:00,43.7,13.5,29.91,NW,306,3.1,3.1,29,0.00,,---,0.00,VWS V14.01,2013-10-11 19:02:00,
2013-10-11 13:03:00,43.7,13.5,29.91,NW,306,0.0,2.2,29,0.00,,---,0.00,VWS V14.01,2013-10-11 19:03:00,
2013-10-11 13:05:00,43.9,13.7,29.91,WNW,301,2.7,2.7,29,0.00,,---,0.00,VWS V14.01,2013-10-11 19:05:00,
2013-10-11 13:06:00,43.9,13.7,29.91,West,280,2.7,2.7,29,0.00,,---,0.00,VWS V14.01,2013-10-11 19:06:00,
2013-10-11 13:07:00,43.9,13.7,29.91,West,280,0.0,2.7,29,0.00,,---,0.00,VWS V14.01,2013-10-11 19:07:00,
2013-10-11 13:08:00,43.9,13.7,29.91,West,268,0.0,2.7,29,0.00,,---,0.00,VWS V14.01,2013-10-11 19:08:00,
2013-10-11 13:10:00,43.9,13.7,29.91,WNW,293,2.7,2.7,29,0.00,,---,0.00,VWS V14.01,2013-10-11 19:10:00,
2013-10-11 13:11:00,43.9,13.7,29.91,WNW,286,3.6,3.6,29,0.00,,---,0.00,VWS V14.01,2013-10-11 19:11:00,
2013-10-11 13:12:00,43.9,13.7,29.91,WNW,295,0.0,3.1,29,0.00,,---,0.00,VWS V14.01,2013-10-11 19:12:00,
2013-10-11 13:13:00,43.9,13.7,29.91,WNW,298,3.1,3.1,29,0.00,,---,0.00,VWS V14.01,2013-10-11 19:13:00,
2013-10-11 13:15:00,43.7,13.5,29.91,WNW,298,2.7,2.7,29,0.00,,---,0.00,VWS V14.01,2013-10-11 19:15:00,
2013-10-11 13:16:00,43.7,13.5,29.91,WSW,256,2.7,2.7,29,0.00,,---,0.00,VWS V14.01,2013-10-11 19:16:00,
2013-10-11 13:17:00,43.7,13.5,29.91,West,278,2.7,3.1,29,0.00,,---,0.00,VWS V14.01,2013-10-11 19:17:00,
2013-10-11 13:18:00,43.5,13.4,29.91,West,278,0.0,3.1,29,0.00,,---,0.00,VWS V14.01,2013-10-11 19:18:00,
2013-10-11 13:20:00,43.3,13.2,29.91,WSW,257,3.1,3.1,29,0.00,,---,0.00,VWS V14.01,2013-10-11 19:20:00,
2013-10-11 13:21:00,43.3,13.2,29.91,WSW,257,3.6,3.6,29,0.00,,---,0.00,VWS V14.01,2013-10-11 19:21:00,
2013-10-11 13:22:00,43.3,13.2,29.91,West,271,2.2,3.6,29,0.00,,---,0.00,VWS V14.01,2013-10-11 19:22:00,
2013-10-11 13:23:00,43.3,13.2,29.91,West,271,2.7,2.7,29,0.00,,---,0.00,VWS V14.01,2013-10-11 19:23:00,
2013-10-11 13:25:00,43.3,13.2,29.91,West,269,0.0,0.0,29,0.00,,---,0.00,VWS V14.01,2013-10-11 19:25:00,
2013-10-11 13:26:00,43.3,13.2,29.91,West,269,0.0,0.0,29,0.00,,---,0.00,VWS V14.01,2013-10-11 19:26:00,
2013-10-11 13:27:00,43.3,13.2,29.91,West,270,0.0,0.0,29,0.00,,---,0.00,VWS V14.01,2013-10-11 19:27:00,
2013-10-11 13:28:00,43.3,13.2,29.91,West,268,0.0,0.0,29,0.00,,---,0.00,VWS V14.01,2013-10-11 19:28:00,
2013-10-11 13:30:00,43.7,14.3,29.91,SSW,210,4.0,4.0,30,0.00,,,0.00,VWS V15.00,2013-10-11 19:30:00,
2013-10-11 13:31:00,43.9,13.7,29.91,NW,305,2.2,3.1,29,0.00,,---,0.00,VWS V14.01,2013-10-11 19:31:00,
2013-10-11 13:32:00,44.2,14.0,29.91,SSW,207,4.5,4.5,29,0.00,,---,0.00,VWS V14.01,2013-10-11 19:32:00,
2013-10-11 13:33:00,44.2,14.0,29.91,NNW,339,3.6,3.6,29,0.00,,---,0.00,VWS V14.01,2013-10-11 19:33:00,
2013-10-11 13:34:00,44.4,14.2,29.91,West,260,2.7,3.1,29,0.00,,---,0.00,VWS V14.01,2013-10-11 19:34:00,
2013-10-11 13:36:00,44.6,13.5,29.91,WSW,237,5.4,5.8,28,0.00,,---,0.00,VWS V14.01,2013-10-11 19:36:00,
2013-10-11 13:37:00,44.8,13.7,29.91,WSW,238,3.1,3.1,28,0.00,,---,0.00,VWS V14.01,2013-10-11 19:37:00,
2013-10-11 13:38:00,44.8,13.7,29.91,WSW,238,2.7,3.1,28,0.00,,---,0.00,VWS V14.01,2013-10-11 19:38:00,
2013-10-11 13:39:00,44.8,13.7,29.91,SSW,198,3.6,3.6,28,0.00,,---,0.00,VWS V14.01,2013-10-11 19:39:00,
2013-10-11 13:41:00,45.0,13.8,29.91,WSW,244,2.7,4.0,28,0.00,,---,0.00,VWS V14.01,2013-10-11 19:41:00,
2013-10-11 13:42:00,45.0,13.8,29.91,WSW,241,2.7,3.6,28,0.00,,---,0.00,VWS V14.01,2013-10-11 19:42:00,
2013-10-11 13:43:00,44.8,13.7,29.91,WSW,240,3.1,3.6,28,0.00,,---,0.00,VWS V14.01,2013-10-11 19:43:00,
2013-10-11 13:45:00,44.6,13.5,29.91,West,279,3.1,3.1,28,0.00,,---,0.00,VWS V14.01,2013-10-11 19:45:00,
2013-10-11 13:46:00,44.6,13.5,29.91,West,271,3.6,3.6,28,0.00,,---,0.00,VWS V14.01,2013-10-11 19:46:00,
2013-10-11 13:47:00,44.6,13.5,29.91,West,270,5.4,5.4,28,0.00,,---,0.00,VWS V14.01,2013-10-11 19:47:00,
2013-10-11 13:48:00,44.2,14.0,29.91,WSW,255,2.7,3.1,29,0.00,,---,0.00,VWS V14.01,2013-10-11 19:48:00,
2013-10-11 13:50:00,44.2,14.0,29.91,West,279,3.6,4.0,29,0.00,,---,0.00,VWS V14.01,2013-10-11 19:50:00,
2013-10-11 13:51:00,44.1,13.9,29.91,NW,306,3.1,3.1,29,0.00,,---,0.00,VWS V14.01,2013-10-11 19:51:00,
2013-10-11 13:52:00,44.1,13.9,29.91,NW,312,3.1,3.1,29,0.00,,---,0.00,VWS V14.01,2013-10-11 19:52:00,
2013-10-11 13:53:00,44.1,13.9,29.91,North,353,3.1,3.1,29,0.00,,---,0.00,VWS V14.01,2013-10-11 19:53:00,
2013-10-11 13:55:00,43.9,13.7,29.91,NNW,337,2.7,2.7,29,0.00,,---,0.00,VWS V14.01,2013-10-11 19:55:00,
2013-10-11 13:56:00,43.9,13.7,29.91,West,280,3.1,3.1,29,0.00,,---,0.00,VWS V14.01,2013-10-11 19:56:00,
2013-10-11 13:57:00,43.9,13.7,29.91,West,279,2.7,2.7,29,0.00,,---,0.00,VWS V14.01,2013-10-11 19:57:00,
2013-10-11 13:59:00,43.9,13.7,29.91,West,279,2.7,3.1,29,0.00,,---,0.00,VWS V14.01,2013-10-11 19:59:00,
2013-10-11 14:00:00,43.9,13.7,29.91,West,280,0.0,2.2,29,0.00,,---,0.00,VWS V14.01,2013-10-11 20:00:00,
2013-10-11 14:02:00,44.1,13.9,29.91,NW,307,3.1,3.1,29,0.00,,---,0.00,VWS V14.01,2013-10-11 20:02:00,
2013-10-11 14:04:00,44.1,13.9,29.91,WNW,300,0.0,0.0,29,0.00,,---,0.00,VWS V14.01,2013-10-11 20:04:00,
2013-10-11 14:05:00,44.2,14.0,29.91,WNW,290,0.0,0.0,29,0.00,,---,0.00,VWS V14.01,2013-10-11 20:05:00,
2013-10-11 14:07:00,44.2,14.0,29.91,WNW,290,0.0,0.0,29,0.00,,---,0.00,VWS V14.01,2013-10-11 20:07:00,
2013-10-11 14:08:00,44.2,14.0,29.91,WNW,290,0.0,0.0,29,0.00,,---,0.00,VWS V14.01,2013-10-11 20:08:00,
2013-10-11 14:09:00,44.2,14.0,29.91,WNW,290,0.0,0.0,29,0.00,,---,0.00,VWS V14.01,2013-10-11 20:09:00,
2013-10-11 14:10:00,44.4,14.2,29.91,WNW,298,0.0,3.6,29,0.00,,---,0.00,VWS V14.01,2013-10-11 20:10:00,
2013-10-11 14:12:00,44.4,13.4,29.91,West,268,0.0,2.2,28,0.00,,---,0.00,VWS V14.01,2013-10-11 20:12:00,
2013-10-11 14:13:00,44.6,13.5,29.91,WNW,286,3.1,3.1,28,0.00,,---,0.00,VWS V14.01,2013-10-11 20:13:00,
2013-10-11 14:14:00,44.6,13.5,29.91,North,357,2.7,2.7,28,0.00,,---,0.00,VWS V14.01,2013-10-11 20:14:00,
2013-10-11 14:15:00,44.8,13.7,29.91,North,353,4.0,4.9,28,0.00,,,0.00,VWS V15.00,2013-10-11 20:15:00,
2013-10-11 14:16:00,44.8,13.7,29.91,North,0,4.0,4.0,28,0.00,,---,0.00,VWS V14.01,2013-10-11 20:16:00,
2013-10-11 14:17:00,44.8,13.7,29.91,NW,307,2.7,2.7,28,0.00,,---,0.00,VWS V14.01,2013-10-11 20:17:00,
2013-10-11 14:18:00,44.8,13.7,29.91,WSW,250,3.1,3.1,28,0.00,,---,0.00,VWS V14.01,2013-10-11 20:18:00,
2013-10-11 14:19:00,44.8,13.7,29.91,WSW,238,3.1,3.1,28,0.00,,---,0.00,VWS V14.01,2013-10-11 20:19:00,
2013-10-11 14:21:00,44.6,13.5,29.91,NW,310,0.0,0.0,28,0.00,,---,0.00,VWS V14.01,2013-10-11 20:21:00,
2013-10-11 14:22:00,44.6,13.5,29.91,NW,324,3.6,3.6,28,0.00,,---,0.00,VWS V14.01,2013-10-11 20:22:00,
2013-10-11 14:23:00,44.6,13.5,29.91,NW,321,3.6,3.6,28,0.00,,---,0.00,VWS V14.01,2013-10-11 20:23:00,
2013-10-11 14:24:00,44.6,13.5,29.91,NW,321,2.2,2.7,28,0.00,,---,0.00,VWS V14.01,2013-10-11 20:24:00,
2013-10-11 14:26:00,44.8,13.7,29.91,NW,304,2.7,3.6,28,0.00,,---,0.00,VWS V14.01,2013-10-11 20:26:00,
2013-10-11 14:27:00,44.8,13.7,29.91,NW,305,3.6,3.6,28,0.00,,---,0.00,VWS V14.01,2013-10-11 20:27:00,
2013-10-11 14:28:00,44.8,13.7,29.91,NW,307,2.7,3.6,28,0.00,,---,0.00,VWS V14.01,2013-10-11 20:28:00,
2013-10-11 14:29:00,45.0,13.8,29.91,NW,326,0.0,3.1,28,0.00,,---,0.00,VWS V14.01,2013-10-11 20:29:00,
2013-10-11 14:30:00,45.0,13.8,29.91,NW,317,2.7,3.1,28,0.00,,---,0.00,VWS V14.01,2013-10-11 20:30:00,
2013-10-11 14:31:00,45.1,14.0,29.91,NW,316,0.0,3.1,28,0.00,,---,0.00,VWS V14.01,2013-10-11 20:31:00,
2013-10-11 14:32:00,45.1,14.0,29.91,NW,316,2.7,2.7,28,0.00,,---,0.00,VWS V14.01,2013-10-11 20:32:00,
2013-10-11 14:33:00,45.1,14.0,29.91,NW,312,3.1,3.6,28,0.00,,---,0.00,VWS V14.01,2013-10-11 20:33:00,
2013-10-11 14:35:00,45.3,14.1,29.91,North,8,4.0,4.0,28,0.00,,---,0.00,VWS V14.01,2013-10-11 20:35:00,
2013-10-11 14:37:00,45.3,14.1,29.91,NNW,328,2.7,3.6,28,0.00,,---,0.00,VWS V14.01,2013-10-11 20:37:00,
2013-10-11 14:38:00,45.3,14.1,29.91,NW,306,0.0,0.0,28,0.00,,---,0.00,VWS V14.01,2013-10-11 20:38:00,
2013-10-11 14:39:00,45.5,14.3,29.91,NNW,345,2.7,3.1,28,0.00,,---,0.00,VWS V14.01,2013-10-11 20:39:00,
2013-10-11 14:40:00,45.5,14.3,29.91,North,0,4.0,4.0,28,0.00,,---,0.00,VWS V14.01,2013-10-11 20:40:00,
2013-10-11 14:42:00,45.5,14.3,29.91,WNW,290,2.7,3.6,28,0.00,,---,0.00,VWS V14.01,2013-10-11 20:42:00,
2013-10-11 14:43:00,45.5,14.3,29.91,WNW,299,2.2,3.1,28,0.00,,---,0.00,VWS V14.01,2013-10-11 20:43:00,
2013-10-11 14:44:00,45.5,14.3,29.91,North,353,3.6,3.6,28,0.00,,---,0.00,VWS V14.01,2013-10-11 20:44:00,
2013-10-11 14:45:00,45.5,14.3,29.91,NNW,345,3.6,4.0,28,0.00,,---,0.00,VWS V14.01,2013-10-11 20:45:00,
2013-10-11 14:47:00,45.3,14.1,29.91,NW,312,4.0,4.0,28,0.00,,---,0.00,VWS V14.01,2013-10-11 20:47:00,
2013-10-11 14:48:00,45.3,14.1,29.91,WNW,298,2.7,2.7,28,0.00,,---,0.00,VWS V14.01,2013-10-11 20:48:00,
2013-10-11 14:49:00,45.3,14.1,29.91,NW,309,2.7,3.1,28,0.00,,---,0.00,VWS V14.01,2013-10-11 20:49:00,
2013-10-11 14:50:00,45.3,14.1,29.91,NW,308,2.7,2.7,28,0.00,,---,0.00,VWS V14.01,2013-10-11 20:50:00,
2013-10-11 14:52:00,45.3,14.1,29.91,NW,317,3.1,3.1,28,0.00,,---,0.00,VWS V14.01,2013-10-11 20:52:00,
2013-10-11 14:53:00,45.3,14.1,29.91,NW,315,2.7,3.6,28,0.00,,---,0.00,VWS V14.01,2013-10-11 20:53:00,
2013-10-11 14:55:00,45.3,14.1,29.91,NW,314,2.7,2.7,28,0.00,,---,0.00,VWS V14.01,2013-10-11 20:55:00,
2013-10-11 14:57:00,45.3,14.1,29.91,NW,324,3.1,3.6,28,0.00,,---,0.00,VWS V14.01,2013-10-11 20:57:00,
2013-10-11 14:58:00,45.3,14.1,29.91,NW,306,3.1,3.1,28,0.00,,---,0.00,VWS V14.01,2013-10-11 20:58:00,
2013-10-11 15:00:00,45.3,14.1,29.91,NW,305,2.2,2.2,28,0.00,,---,0.00,VWS V14.01,2013-10-11 21:00:00,
2013-10-11 15:01:00,45.3,14.1,29.91,West,264,2.7,3.6,28,0.00,,---,0.00,VWS V14.01,2013-10-11 21:01:00,
2013-10-11 15:02:00,45.3,14.1,29.91,West,271,0.0,2.7,28,0.00,,---,0.00,VWS V14.01,2013-10-11 21:02:00,
2013-10-11 15:03:00,45.3,14.1,29.91,North,0,3.6,3.6,28,0.00,,---,0.00,VWS V14.01,2013-10-11 21:03:00,
2013-10-11 15:05:00,45.1,14.0,29.91,NW,310,3.1,3.1,28,0.00,,---,0.00,VWS V14.01,2013-10-11 21:05:00,
2013-10-11 15:06:00,45.1,14.0,29.91,NNW,328,2.7,4.9,28,0.00,,---,0.00,VWS V14.01,2013-10-11 21:06:00,
2013-10-11 15:07:00,45.0,13.8,29.91,NNW,333,0.0,0.0,28,0.00,,---,0.00,VWS V14.01,2013-10-11 21:07:00,
2013-10-11 15:08:00,45.0,13.8,29.91,NW,320,2.7,2.7,28,0.00,,---,0.00,VWS V14.01,2013-10-11 21:08:00,
2013-10-11 15:09:00,45.0,13.8,29.91,NW,314,2.7,2.7,28,0.00,,---,0.00,VWS V14.01,2013-10-11 21:09:00,
2013-10-11 15:10:00,44.8,13.7,29.91,NW,318,2.7,2.7,28,0.00,,---,0.00,VWS V14.01,2013-10-11 21:10:00,
2013-10-11 15:11:00,45.0,13.8,29.91,NW,324,2.7,2.7,28,0.00,,---,0.00,VWS V14.01,2013-10-11 21:11:00,
2013-10-11 15:13:00,44.8,13.7,29.91,NW,307,0.0,0.0,28,0.00,,---,0.00,VWS V14.01,2013-10-11 21:13:00,
2013-10-11 15:14:00,44.8,13.7,29.91,WNW,283,2.7,3.1,28,0.00,,---,0.00,VWS V14.01,2013-10-11 21:14:00,
2013-10-11 15:15:00,44.8,13.7,29.91,West,271,3.6,3.6,28,0.00,,---,0.00,VWS V14.01,2013-10-11 21:15:00,
2013-10-11 15:16:00,45.0,13.8,29.91,West,275,3.1,3.1,28,0.00,,---,0.00,VWS V14.01,2013-10-11 21:16:00,
2013-10-11 15:18:00,45.3,14.1,29.91,NW,318,0.0,3.1,28,0.00,,---,0.00,VWS V14.01,2013-10-11 21:18:00,
2013-10-11 15:19:00,45.3,14.1,29.91,WNW,297,2.7,2.7,28,0.00,,---,0.00,VWS V14.01,2013-10-11 21:19:00,
2013-10-11 15:20:00,45.7,14.5,29.91,North,353,3.1,5.4,28,0.00,,---,0.00,VWS V14.01,2013-10-11 21:20:00,
2013-10-11 15:21:00,45.9,14.6,29.91,NNW,341,2.7,3.6,28,0.00,,---,0.00,VWS V14.01,2013-10-11 21:21:00,
2013-10-11 15:22:00,46.0,14.8,29.91,North,0,2.7,2.7,28,0.00,,---,0.00,VWS V14.01,2013-10-11 21:22:00,
2013-10-11 15:23:00,46.0,14.8,29.91,WNW,292,2.7,2.7,28,0.00,,---,0.00,VWS V14.01,2013-10-11 21:23:00,
2013-10-11 15:24:00,46.2,14.9,29.91,WNW,292,0.0,0.0,28,0.00,,---,0.00,VWS V14.01,2013-10-11 21:24:00,
2013-10-11 15:25:00,46.2,14.9,29.91,WNW,286,3.1,3.1,28,0.00,,---,0.00,VWS V14.01,2013-10-11 21:25:00,
2013-10-11 15:26:00,46.2,14.9,29.91,WNW,286,0.0,0.0,28,0.00,,---,0.00,VWS V14.01,2013-10-11 21:26:00,
2013-10-11 15:27:00,46.2,14.9,29.91,WNW,286,0.0,0.0,28,0.00,,---,0.00,VWS V14.01,2013-10-11 21:27:00,
2013-10-11 15:28:00,46.2,14.9,29.91,WNW,286,2.2,2.2,28,0.00,,---,0.00,VWS V14.01,2013-10-11 21:28:00,
2013-10-11 15:29:00,46.2,14.9,29.91,WNW,286,2.7,2.7,28,0.00,,---,0.00,VWS V14.01,2013-10-11 21:29:00,
2013-10-11 15:30:00,46.4,14.2,29.91,West,281,2.7,2.7,27,0.00,,---,0.00,VWS V14.01,2013-10-11 21:30:00,
2013-10-11 15:31:00,46.2,14.9,29.91,WNW,291,2.7,2.7,28,0.00,,---,0.00,VWS V14.01,2013-10-11 21:31:00,
2013-10-11 15:32:00,46.4,14.2,29.91,North,353,3.1,3.1,27,0.00,,---,0.00,VWS V14.01,2013-10-11 21:32:00,
2013-10-11 15:33:00,46.2,14.9,29.91,WNW,302,0.0,0.0,28,0.00,,---,0.00,VWS V14.01,2013-10-11 21:33:00,
2013-10-11 15:34:00,46.2,14.9,29.91,WNW,302,0.0,0.0,28,0.00,,---,0.00,VWS V14.01,2013-10-11 21:34:00,
2013-10-11 15:35:00,46.2,14.9,29.91,WNW,302,0.0,2.2,28,0.00,,---,0.00,VWS V14.01,2013-10-11 21:35:00,
2013-10-11 15:36:00,46.2,14.9,29.91,WNW,295,0.0,2.2,28,0.00,,---,0.00,VWS V14.01,2013-10-11 21:36:00,
2013-10-11 15:37:00,46.2,14.9,29.91,WNW,295,0.0,0.0,28,0.00,,---,0.00,VWS V14.01,2013-10-11 21:37:00,
2013-10-11 15:38:00,46.2,14.9,29.91,WNW,295,0.0,0.0,28,0.00,,---,0.00,VWS V14.01,2013-10-11 21:38:00,
2013-10-11 15:39:00,46.2,14.9,29.91,WNW,295,0.0,0.0,28,0.00,,---,0.00,VWS V14.01,2013-10-11 21:39:00,
2013-10-11 15:40:00,46.2,14.9,29.91,West,260,0.0,0.0,28,0.00,,---,0.00,VWS V14.01,2013-10-11 21:40:00,
2013-10-11 15:41:00,46.2,14.9,29.91,WSW,256,0.0,0.0,28,0.00,,---,0.00,VWS V14.01,2013-10-11 21:41:00,
2013-10-11 15:42:00,46.2,14.9,29.91,WSW,257,0.0,0.0,28,0.00,,---,0.00,VWS V14.01,2013-10-11 21:42:00,
2013-10-11 15:44:00,46.2,14.9,29.91,West,267,0.0,0.0,28,0.00,,---,0.00,VWS V14.01,2013-10-11 21:44:00,
2013-10-11 15:45:00,46.0,14.8,29.91,West,268,0.0,0.0,28,0.00,,---,0.00,VWS V14.01,2013-10-11 21:45:00,
2013-10-11 15:46:00,46.0,14.8,29.91,West,268,0.0,0.0,28,0.00,,---,0.00,VWS V14.01,2013-10-11 21:46:00,
2013-10-11 15:47:00,46.0,14.8,29.91,West,268,0.0,0.0,28,0.00,,---,0.00,VWS V14.01,2013-10-11 21:47:00,
2013-10-11 15:49:00,45.9,14.6,29.91,West,268,0.0,0.0,28,0.00,,---,0.00,VWS V14.01,2013-10-11 21:49:00,
2013-10-11 15:50:00,45.9,14.6,29.91,West,278,0.0,0.0,28,0.00,,---,0.00,VWS V14.01,2013-10-11 21:50:00,
2013-10-11 15:52:00,45.9,14.6,29.91,West,276,0.0,0.0,28,0.00,,---,0.00,VWS V14.01,2013-10-11 21:52:00,
2013-10-11 15:54:00,45.9,14.6,29.91,West,275,0.0,0.0,28,0.00,,---,0.00,VWS V14.01,2013-10-11 21:54:00,
2013-10-11 15:55:00,45.9,14.6,29.91,West,275,0.0,0.0,28,0.00,,---,0.00,VWS V14.01,2013-10-11 21:55:00,
2013-10-11 15:56:00,46.0,14.8,29.91,WNW,294,0.0,0.0,28,0.00,,---,0.00,VWS V14.01,2013-10-11 21:56:00,
2013-10-11 15:57:00,46.2,14.9,29.91,West,267,0.0,0.0,28,0.00,,---,0.00,VWS V14.01,2013-10-11 21:57:00,
2013-10-11 15:59:00,46.6,14.4,29.91,NW,310,4.0,4.0,27,0.00,,---,0.00,VWS V14.01,2013-10-11 21:59:00,
2013-10-11 16:00:00,46.6,14.4,29.91,NNW,328,3.1,5.4,27,0.00,,---,0.00,VWS V14.01,2013-10-11 22:00:00,
2013-10-11 16:01:00,46.9,14.7,29.91,NNW,345,3.6,3.6,27,0.00,,---,0.00,VWS V14.01,2013-10-11 22:01:00,
2013-10-11 16:02:00,47.1,14.9,29.91,North,357,2.7,4.0,27,0.00,,---,0.00,VWS V14.01,2013-10-11 22:02:00,
2013-10-11 16:03:00,47.3,15.0,29.91,North,357,0.0,2.2,27,0.00,,---,0.00,VWS V14.01,2013-10-11 22:03:00,
2013-10-11 16:05:00,47.5,15.2,29.91,NNW,329,4.0,4.0,27,0.00,,---,0.00,VWS V14.01,2013-10-11 22:05:00,
2013-10-11 16:06:00,47.8,15.5,29.91,NW,323,3.1,4.0,27,0.00,,---,0.00,VWS V14.01,2013-10-11 22:06:00,
2013-10-11 16:07:00,47.8,15.5,29.91,NNW,337,3.1,3.1,27,0.00,,---,0.00,VWS V14.01,2013-10-11 22:07:00,
2013-10-11 16:08:00,48.0,13.0,29.91,NW,314,2.7,4.9,24,0.00,,---,0.00,VWS V14.01,2013-10-11 22:08:00,
2013-10-11 16:10:00,48.0,15.6,29.91,North,353,3.1,3.6,27,0.00,,---,0.00,VWS V14.01,2013-10-11 22:10:00,
2013-10-11 16:11:00,48.2,14.9,29.91,NW,316,5.4,5.4,26,0.00,,---,0.00,VWS V14.01,2013-10-11 22:11:00,
2013-10-11 16:12:00,48.2,13.1,29.91,NNW,336,3.1,4.0,24,0.00,,---,0.00,VWS V14.01,2013-10-11 22:12:00,
2013-10-11 16:13:00,48.4,13.3,29.91,West,270,2.7,3.1,24,0.00,,---,0.00,VWS V14.01,2013-10-11 22:13:00,
2013-10-11 16:15:00,48.4,13.3,29.91,WNW,291,0.0,0.0,24,0.00,,---,0.00,VWS V14.01,2013-10-11 22:15:00,
2013-10-11 16:17:00,48.6,15.2,29.91,WNW,291,0.0,0.0,26,0.00,,---,0.00,VWS V14.01,2013-10-11 22:17:00,
2013-10-11 16:18:00,48.6,13.4,29.91,WNW,291,3.6,3.6,24,0.00,,---,0.00,VWS V14.01,2013-10-11 22:18:00,
2013-10-11 16:20:00,48.7,13.6,29.91,NW,323,2.7,4.0,24,0.00,,---,0.00,VWS V14.01,2013-10-11 22:20:00,
2013-10-11 16:22:00,48.7,13.6,29.91,NNW,331,2.7,5.4,24,0.00,,---,0.00,VWS V14.01,2013-10-11 22:22:00,
2013-10-11 16:23:00,48.7,13.6,29.91,NNW,328,3.1,3.1,24,0.00,,---,0.00,VWS V14.01,2013-10-11 22:23:00,
2013-10-11 16:24:00,48.7,13.6,29.91,NNW,343,5.4,5.4,24,0.00,,---,0.00,VWS V14.01,2013-10-11 22:24:00,
2013-10-11 16:25:00,48.7,13.6,29.91,NW,312,4.0,4.0,24,0.00,,---,0.00,VWS V14.01,2013-10-11 22:25:00,
2013-10-11 16:27:00,48.6,13.4,29.91,NNW,338,3.6,5.8,24,0.00,,---,0.00,VWS V14.01,2013-10-11 22:27:00,
2013-10-11 16:28:00,48.4,13.3,29.91,NNE,14,4.9,4.9,24,0.00,,---,0.00,VWS V14.01,2013-10-11 22:28:00,
2013-10-11 16:29:00,48.4,13.3,29.91,North,353,4.9,4.9,24,0.00,,---,0.00,VWS V14.01,2013-10-11 22:29:00,
2013-10-11 16:30:00,48.4,13.3,29.91,WNW,295,3.1,3.1,24,0.00,,---,0.00,VWS V14.01,2013-10-11 22:30:00,
2013-10-11 16:31:00,48.4,13.3,29.91,West,275,4.9,4.9,24,0.00,,---,0.00,VWS V14.01,2013-10-11 22:31:00,
2013-10-11 16:32:00,48.4,13.3,29.91,NW,311,2.7,2.7,24,0.00,,---,0.00,VWS V14.01,2013-10-11 22:32:00,
2013-10-11 16:34:00,48.4,13.3,29.91,West,275,4.0,4.0,24,0.00,,---,0.00,VWS V14.01,2013-10-11 22:34:00,
2013-10-11 16:35:00,48.2,13.1,29.91,SSW,200,3.6,4.0,24,0.00,,---,0.00,VWS V14.01,2013-10-11 22:35:00,
2013-10-11 16:36:00,48.2,13.1,29.91,West,259,2.7,4.0,24,0.00,,---,0.00,VWS V14.01,2013-10-11 22:36:00,
2013-10-11 16:37:00,48.2,13.1,29.91,NNW,344,4.0,4.0,24,0.00,,---,0.00,VWS V14.01,2013-10-11 22:37:00,
2013-10-11 16:39:00,48.0,13.0,29.91,NW,309,3.1,3.1,24,0.00,,---,0.00,VWS V14.01,2013-10-11 22:39:00,
2013-10-11 16:41:00,48.0,13.0,29.91,NW,319,4.0,4.0,24,0.00,,---,0.00,VWS V14.01,2013-10-11 22:41:00,
2013-10-11 16:42:00,48.0,13.0,29.91,NNW,327,3.1,3.1,24,0.00,,---,0.00,VWS V14.01,2013-10-11 22:42:00,
2013-10-11 16:44:00,47.8,12.8,29.91,North,357,5.4,5.8,24,0.00,,---,0.00,VWS V14.01,2013-10-11 22:44:00,
2013-10-11 16:45:00,47.8,12.8,29.91,NNW,343,4.0,5.4,24,0.00,,,0.00,VWS V15.00,2013-10-11 22:45:00,
2013-10-11 16:46:00,47.8,10.9,29.91,North,0,6.3,6.3,22,0.00,,---,0.00,VWS V14.01,2013-10-11 22:46:00,
2013-10-11 16:47:00,47.7,12.7,29.91,NW,323,3.6,3.6,24,0.00,,---,0.00,VWS V14.01,2013-10-11 22:47:00,
2013-10-11 16:49:00,47.7,12.7,29.91,NW,318,0.0,0.0,24,0.00,,---,0.00,VWS V14.01,2013-10-11 22:49:00,
2013-10-11 16:50:00,47.7,12.7,29.91,NNW,335,3.1,3.1,24,0.00,,---,0.00,VWS V14.01,2013-10-11 22:50:00,
2013-10-11 16:51:00,47.7,12.7,29.91,NW,314,3.6,4.0,24,0.00,,---,0.00,VWS V14.01,2013-10-11 22:51:00,
2013-10-11 16:53:00,47.7,12.7,29.91,NW,325,4.0,4.0,24,0.00,,---,0.00,VWS V14.01,2013-10-11 22:53:00,
2013-10-11 16:54:00,47.7,10.7,29.91,North,353,4.9,4.9,22,0.00,,---,0.00,VWS V14.01,2013-10-11 22:54:00,
2013-10-11 16:55:00,47.7,10.7,29.91,NW,326,2.7,4.0,22,0.00,,---,0.00,VWS V14.01,2013-10-11 22:55:00,
2013-10-11 16:56:00,47.5,12.5,29.91,NW,306,2.2,2.7,24,0.00,,---,0.00,VWS V14.01,2013-10-11 22:56:00,
2013-10-11 16:58:00,47.5,12.5,29.91,WNW,285,3.6,3.6,24,0.00,,---,0.00,VWS V14.01,2013-10-11 22:58:00,
2013-10-11 17:00:00,47.7,12.7,29.91,WNW,284,0.0,0.0,24,0.00,,---,0.00,VWS V14.01,2013-10-11 23:00:00,
2013-10-11 17:01:00,47.7,12.7,29.91,West,277,3.1,3.6,24,0.00,,---,0.00,VWS V14.01,2013-10-11 23:01:00,
2013-10-11 17:02:00,47.7,12.7,29.91,WNW,286,3.1,3.1,24,0.00,,---,0.00,VWS V14.01,2013-10-11 23:02:00,
2013-10-11 17:05:00,47.7,12.7,29.91,West,263,2.7,3.6,24,0.00,,---,0.00,VWS V14.01,2013-10-11 23:05:00,
2013-10-11 17:06:00,47.7,12.7,29.91,NW,306,2.7,2.7,24,0.00,,---,0.00,VWS V14.01,2013-10-11 23:06:00,
2013-10-11 17:08:00,47.7,12.7,29.91,WNW,291,3.6,3.6,24,0.00,,---,0.00,VWS V14.01,2013-10-11 23:08:00,
2013-10-11 17:10:00,47.7,12.7,29.91,NW,315,4.0,5.4,24,0.00,,---,0.00,VWS V14.01,2013-10-11 23:10:00,
2013-10-11 17:11:00,47.7,12.7,29.91,NW,311,5.4,5.4,24,0.00,,---,0.00,VWS V14.01,2013-10-11 23:11:00,
2013-10-11 17:12:00,47.7,10.7,29.91,NW,308,4.0,5.4,22,0.00,,---,0.00,VWS V14.01,2013-10-11 23:12:00,
2013-10-11 17:13:00,47.5,12.5,29.91,West,279,2.7,2.7,24,0.00,,---,0.00,VWS V14.01,2013-10-11 23:13:00,
2013-10-11 17:15:00,47.5,12.5,29.91,NW,321,3.6,3.6,24,0.00,,---,0.00,VWS V14.01,2013-10-11 23:15:00,
2013-10-11 17:16:00,47.5,12.5,29.91,North,353,2.2,3.6,24,0.00,,---,0.00,VWS V14.01,2013-10-11 23:16:00,
2013-10-11 17:17:00,47.5,12.5,29.91,NW,322,2.2,3.6,24,0.00,,---,0.00,VWS V14.01,2013-10-11 23:17:00,
2013-10-11 17:18:00,47.3,12.4,29.91,NW,321,2.7,2.7,24,0.00,,---,0.00,VWS V14.01,2013-10-11 23:18:00,
2013-10-11 17:20:00,47.3,12.4,29.91,NW,313,2.2,2.2,24,0.00,,---,0.00,VWS V14.01,2013-10-11 23:20:00,
2013-10-11 17:21:00,47.3,12.4,29.91,NW,313,0.0,2.2,24,0.00,,---,0.00,VWS V14.01,2013-10-11 23:21:00,
2013-10-11 17:22:00,47.3,12.4,29.91,NW,313,0.0,0.0,24,0.00,,---,0.00,VWS V14.01,2013-10-11 23:22:00,
2013-10-11 17:23:00,47.1,12.2,29.91,WSW,250,2.2,3.6,24,0.00,,---,0.00,VWS V14.01,2013-10-11 23:23:00,
2013-10-11 17:25:00,47.1,10.2,29.91,WNW,284,4.0,4.0,22,0.00,,---,0.00,VWS V14.01,2013-10-11 23:25:00,
2013-10-11 17:26:00,47.1,10.2,29.91,WNW,295,3.1,4.0,22,0.00,,---,0.00,VWS V14.01,2013-10-11 23:26:00,
2013-10-11 17:27:00,47.1,12.2,29.91,West,280,2.7,3.1,24,0.00,,---,0.00,VWS V14.01,2013-10-11 23:27:00,
2013-10-11 17:28:00,47.1,10.2,29.91,West,279,3.1,4.9,22,0.00,,---,0.00,VWS V14.01,2013-10-11 23:28:00,
2013-10-11 17:30:00,47.1,12.2,29.91,West,279,2.2,2.7,24,0.00,,---,0.00,VWS V14.01,2013-10-11 23:30:00,
2013-10-11 17:31:00,47.1,12.2,29.91,WSW,248,3.1,3.1,24,0.00,,---,0.00,VWS V14.01,2013-10-11 23:31:00,
2013-10-11 17:32:00,47.1,12.2,29.91,SW,217,6.3,6.3,24,0.00,,---,0.00,VWS V14.01,2013-10-11 23:32:00,
2013-10-11 17:33:00,47.1,12.2,29.91,SW,227,4.0,4.0,24,0.00,,---,0.00,VWS V14.01,2013-10-11 23:33:00,
2013-10-11 17:35:00,46.9,12.1,29.91,SSW,199,4.0,4.0,24,0.00,,---,0.00,VWS V14.01,2013-10-11 23:35:00,
2013-10-11 17:36:00,46.9,12.1,29.91,West,281,3.6,4.0,24,0.00,,---,0.00,VWS V14.01,2013-10-11 23:36:00,
2013-10-11 17:37:00,46.9,10.1,29.91,SW,223,3.6,3.6,22,0.00,,---,0.00,VWS V14.01,2013-10-11 23:37:00,
2013-10-11 17:38:00,46.9,12.1,29.91,SW,229,2.7,2.7,24,0.00,,---,0.00,VWS V14.01,2013-10-11 23:38:00,
2013-10-11 17:40:00,46.8,11.9,29.91,SW,218,3.1,3.6,24,0.00,,---,0.00,VWS V14.01,2013-10-11 23:40:00,
2013-10-11 17:41:00,46.8,11.9,29.91,SW,221,2.2,3.1,24,0.00,,---,0.00,VWS V14.01,2013-10-11 23:41:00,
2013-10-11 17:42:00,46.8,11.9,29.91,SW,232,3.1,3.1,24,0.00,,---,0.00,VWS V14.01,2013-10-11 23:42:00,
2013-10-11 17:43:00,46.6,11.7,29.91,West,267,3.1,3.6,24,0.00,,---,0.00,VWS V14.01,2013-10-11 23:43:00,
2013-10-11 17:45:00,46.6,11.7,29.91,SW,230,4.0,4.0,24,0.00,,---,0.00,VWS V14.01,2013-10-11 23:45:00,
2013-10-11 17:47:00,46.6,11.7,29.91,SW,225,2.2,3.1,24,0.00,,---,0.00,VWS V14.01,2013-10-11 23:47:00,
2013-10-11 17:48:00,46.6,11.7,29.91,SW,225,2.2,2.2,24,0.00,,---,0.00,VWS V14.01,2013-10-11 23:48:00,
2013-10-11 17:51:00,46.4,11.6,29.91,NNW,330,3.6,3.6,24,0.00,,---,0.00,VWS V14.01,2013-10-11 23:51:00,
2013-10-11 17:52:00,46.4,11.6,29.91,WNW,303,3.1,3.1,24,0.00,,---,0.00,VWS V14.01,2013-10-11 23:52:00,
2013-10-11 17:53:00,46.2,12.4,29.91,WNW,289,2.2,4.0,25,0.00,,---,0.00,VWS V14.01,2013-10-11 23:53:00,
2013-10-11 17:54:00,46.2,12.4,29.91,WNW,292,3.1,3.1,25,0.00,,---,0.00,VWS V14.01,2013-10-11 23:54:00,
2013-10-11 17:56:00,46.2,12.4,29.91,WSW,253,3.6,4.5,25,0.00,,---,0.00,VWS V14.01,2013-10-11 23:56:00,
2013-10-11 17:57:00,46.0,12.2,29.91,WNW,292,2.7,3.6,25,0.00,,---,0.00,VWS V14.01,2013-10-11 23:57:00,
2013-10-11 17:58:00,46.0,12.2,29.91,WNW,292,2.7,2.7,25,0.00,,---,0.00,VWS V14.01,2013-10-11 23:58:00,
2013-10-11 17:59:00,46.0,12.2,29.91,WNW,292,2.2,2.2,25,0.00,,---,0.00,VWS V14.01,2013-10-11 23:59:00,
2013-10-11 18:00:00,46.0,12.2,29.91,WNW,292,2.7,2.7,25,0.00,,,0.00,VWS V15.00,2013-10-12 00:00:00,
2013-10-11 18:01:00,46.0,12.2,29.91,WNW,292,0.0,2.7,25,0.00,,---,0.00,VWS V14.01,2013-10-12 00:01:00,
2013-10-11 18:02:00,45.9,12.0,29.91,WNW,292,0.0,0.0,25,0.00,,---,0.00,VWS V14.01,2013-10-12 00:02:00,
2013-10-11 18:03:00,45.9,12.0,29.91,WNW,292,0.0,2.2,25,0.00,,---,0.00,VWS V14.01,2013-10-12 00:03:00,
2013-10-11 18:04:00,45.7,11.9,29.91,WNW,292,0.0,3.6,25,0.00,,---,0.00,VWS V14.01,2013-10-12 00:04:00,
2013-10-11 18:07:00,45.5,11.7,29.91,West,277,2.2,2.2,25,0.00,,---,0.00,VWS V14.01,2013-10-12 00:07:00,
2013-10-11 18:08:00,45.5,11.7,29.91,West,277,0.0,2.2,25,0.00,,---,0.00,VWS V14.01,2013-10-12 00:08:00,
2013-10-11 18:09:00,45.3,11.6,29.91,West,277,0.0,0.0,25,0.00,,---,0.00,VWS V14.01,2013-10-12 00:09:00,
2013-10-11 18:12:00,45.1,11.4,29.91,West,281,0.0,2.2,25,0.00,,---,0.00,VWS V14.01,2013-10-12 00:12:00,
2013-10-11 18:13:00,45.1,11.4,29.91,WNW,286,3.1,3.1,25,0.00,,---,0.00,VWS V14.01,2013-10-12 00:13:00,
2013-10-11 18:14:00,45.1,11.4,29.91,WNW,286,2.2,2.7,25,0.00,,---,0.00,VWS V14.01,2013-10-12 00:14:00,
2013-10-11 18:15:00,45.1,11.4,29.91,WNW,288,3.1,3.1,25,0.00,,,0.00,VWS V15.00,2013-10-12 00:15:00,
2013-10-11 18:17:00,45.0,11.3,29.91,WNW,292,0.0,2.2,25,0.00,,---,0.00,VWS V14.01,2013-10-12 00:17:00,
2013-10-11 18:19:00,44.8,11.1,29.91,WNW,292,0.0,0.0,25,0.00,,---,0.00,VWS V14.01,2013-10-12 00:19:00,
2013-10-11 18:22:00,44.6,11.0,29.91,WNW,292,0.0,0.0,25,0.00,,---,0.00,VWS V14.01,2013-10-12 00:22:00,
2013-10-11 18:24:00,44.4,10.8,29.91,WNW,292,0.0,0.0,25,0.00,,---,0.00,VWS V14.01,2013-10-12 00:24:00,
2013-10-11 18:27:00,43.9,12.9,29.91,WNW,292,0.0,0.0,28,0.00,,---,0.00,VWS V14.01,2013-10-12 00:27:00,
2013-10-11 18:28:00,43.9,12.9,29.91,WNW,292,0.0,0.0,28,0.00,,---,0.00,VWS V14.01,2013-10-12 00:28:00,
2013-10-11 18:29:00,43.7,12.8,29.91,WNW,292,0.0,0.0,28,0.00,,---,0.00,VWS V14.01,2013-10-12 00:29:00,
2013-10-11 18:30:00,43.5,12.6,29.91,WNW,292,0.0,0.0,28,0.00,,,0.00,VWS V15.00,2013-10-12 00:30:00,
2013-10-11 18:32:00,43.2,12.3,29.91,WNW,292,0.0,0.0,28,0.00,,---,0.00,VWS V14.01,2013-10-12 00:32:00,
2013-10-11 18:33:00,43.2,12.3,29.91,WNW,292,0.0,0.0,28,0.00,,---,0.00,VWS V14.01,2013-10-12 00:33:00,
2013-10-11 18:34:00,43.0,12.1,29.91,WNW,292,0.0,0.0,28,0.00,,---,0.00,VWS V14.01,2013-10-12 00:34:00,
2013-10-11 18:35:00,42.8,12.0,29.91,WNW,292,0.0,0.0,28,0.00,,---,0.00,VWS V14.01,2013-10-12 00:35:00,
2013-10-11 18:38:00,42.4,11.7,29.91,WNW,292,0.0,0.0,28,0.00,,---,0.00,VWS V14.01,2013-10-12 00:38:00,
2013-10-11 18:39:00,42.3,11.5,29.91,WNW,292,0.0,0.0,28,0.00,,---,0.00,VWS V14.01,2013-10-12 00:39:00,
2013-10-11 18:40:00,42.1,11.3,29.91,WNW,292,0.0,0.0,28,0.00,,---,0.00,VWS V14.01,2013-10-12 00:40:00,
2013-10-11 18:43:00,41.9,11.2,29.91,WNW,291,0.0,0.0,28,0.00,,---,0.00,VWS V14.01,2013-10-12 00:43:00,
2013-10-11 18:44:00,41.7,11.0,29.91,WNW,292,0.0,0.0,28,0.00,,---,0.00,VWS V14.01,2013-10-12 00:44:00,
2013-10-11 18:45:00,41.7,11.0,29.91,WNW,292,0.0,0.0,28,0.00,,---,0.00,VWS V14.01,2013-10-12 00:45:00,
2013-10-11 18:48:00,41.5,10.9,29.91,WNW,292,0.0,0.0,28,0.00,,---,0.00,VWS V14.01,2013-10-12 00:48:00,
2013-10-11 18:49:00,41.5,10.9,29.91,WNW,292,0.0,0.0,28,0.00,,---,0.00,VWS V14.01,2013-10-12 00:49:00,
2013-10-11 18:50:00,41.5,10.9,29.91,WNW,292,0.0,0.0,28,0.00,,---,0.00,VWS V14.01,2013-10-12 00:50:00,
2013-10-11 18:53:00,41.4,10.7,29.91,WNW,292,0.0,0.0,28,0.00,,---,0.00,VWS V14.01,2013-10-12 00:53:00,
2013-10-11 18:55:00,41.2,10.6,29.91,WNW,292,0.0,0.0,28,0.00,,---,0.00,VWS V14.01,2013-10-12 00:55:00,
2013-10-11 18:56:00,41.2,10.6,29.91,WNW,292,0.0,0.0,28,0.00,,---,0.00,VWS V14.01,2013-10-12 00:56:00,
2013-10-11 18:58:00,41.0,10.4,29.91,WNW,292,0.0,0.0,28,0.00,,---,0.00,VWS V14.01,2013-10-12 00:58:00,
2013-10-11 19:00:00,41.0,11.2,29.91,WNW,292,0.0,0.0,29,0.00,,---,0.00,VWS V14.01,2013-10-12 01:00:00,
2013-10-11 19:01:00,40.8,11.0,29.91,WNW,292,0.0,0.0,29,0.00,,---,0.00,VWS V14.01,2013-10-12 01:01:00,
2013-10-11 19:03:00,40.8,11.0,29.91,WNW,292,0.0,0.0,29,0.00,,---,0.00,VWS V14.01,2013-10-12 01:03:00,
2013-10-11 19:05:00,40.6,10.9,29.91,WNW,292,0.0,0.0,29,0.00,,---,0.00,VWS V14.01,2013-10-12 01:05:00,
2013-10-11 19:06:00,40.6,10.9,29.91,WNW,292,0.0,0.0,29,0.00,,---,0.00,VWS V14.01,2013-10-12 01:06:00,
2013-10-11 19:07:00,40.6,10.9,29.91,WNW,292,0.0,0.0,29,0.00,,---,0.00,VWS V14.01,2013-10-12 01:07:00,
2013-10-11 19:08:00,40.5,10.7,29.91,WNW,292,0.0,0.0,29,0.00,,---,0.00,VWS V14.01,2013-10-12 01:08:00,
2013-10-11 19:10:00,40.5,10.7,29.91,WNW,292,0.0,0.0,29,0.00,,---,0.00,VWS V14.01,2013-10-12 01:10:00,
2013-10-11 19:11:00,40.5,10.7,29.91,WNW,292,0.0,0.0,29,0.00,,---,0.00,VWS V14.01,2013-10-12 01:11:00,
2013-10-11 19:12:00,40.5,10.7,29.91,WNW,292,0.0,0.0,29,0.00,,---,0.00,VWS V14.01,2013-10-12 01:12:00,
2013-10-11 19:13:00,40.5,10.7,29.91,WNW,292,0.0,0.0,29,0.00,,---,0.00,VWS V14.01,2013-10-12 01:13:00,
2013-10-11 19:15:00,40.6,10.9,29.91,WNW,292,0.0,0.0,29,0.00,,,0.00,VWS V15.00,2013-10-12 01:15:00,
2013-10-11 19:16:00,40.6,10.9,29.91,WNW,292,0.0,0.0,29,0.00,,---,0.00,VWS V14.01,2013-10-12 01:16:00,
2013-10-11 19:17:00,40.8,11.0,29.91,WNW,292,0.0,0.0,29,0.00,,---,0.00,VWS V14.01,2013-10-12 01:17:00,
2013-10-11 19:18:00,41.0,11.2,29.91,WNW,292,0.0,0.0,29,0.00,,---,0.00,VWS V14.01,2013-10-12 01:18:00,
2013-10-11 19:21:00,41.0,11.2,29.91,WNW,292,0.0,0.0,29,0.00,,---,0.00,VWS V14.01,2013-10-12 01:21:00,
2013-10-11 19:22:00,41.2,11.4,29.91,WNW,292,0.0,0.0,29,0.00,,---,0.00,VWS V14.01,2013-10-12 01:22:00,
2013-10-11 19:23:00,41.2,11.4,29.91,WNW,292,0.0,0.0,29,0.00,,---,0.00,VWS V14.01,2013-10-12 01:23:00,
2013-10-11 19:24:00,41.2,11.4,29.91,WNW,290,0.0,0.0,29,0.00,,---,0.00,VWS V14.01,2013-10-12 01:24:00,
2013-10-11 19:26:00,41.2,11.4,29.91,WNW,292,0.0,0.0,29,0.00,,---,0.00,VWS V14.01,2013-10-12 01:26:00,
2013-10-11 19:27:00,41.0,11.2,29.91,WNW,292,0.0,0.0,29,0.00,,---,0.00,VWS V14.01,2013-10-12 01:27:00,
2013-10-11 19:28:00,41.0,11.2,29.91,WNW,292,0.0,0.0,29,0.00,,---,0.00,VWS V14.01,2013-10-12 01:28:00,
2013-10-11 19:29:00,41.0,11.2,29.91,WNW,292,0.0,0.0,29,0.00,,---,0.00,VWS V14.01,2013-10-12 01:29:00,
2013-10-11 19:30:00,41.0,11.2,29.91,WNW,292,0.0,0.0,29,0.00,,,0.00,VWS V15.00,2013-10-12 01:30:00,
2013-10-11 19:31:00,40.8,11.0,29.91,WNW,292,0.0,0.0,29,0.00,,---,0.00,VWS V14.01,2013-10-12 01:31:00,
2013-10-11 19:32:00,40.6,10.9,29.91,WNW,293,0.0,0.0,29,0.00,,---,0.00,VWS V14.01,2013-10-12 01:32:00,
2013-10-11 19:33:00,40.5,10.7,29.91,WNW,292,0.0,0.0,29,0.00,,---,0.00,VWS V14.01,2013-10-12 01:33:00,
2013-10-11 19:34:00,40.5,10.7,29.91,WNW,292,0.0,0.0,29,0.00,,---,0.00,VWS V14.01,2013-10-12 01:34:00,
2013-10-11 19:36:00,40.1,10.4,29.91,WNW,292,0.0,0.0,29,0.00,,---,0.00,VWS V14.01,2013-10-12 01:36:00,
2013-10-11 19:37:00,40.1,10.4,29.91,WNW,290,0.0,0.0,29,0.00,,---,0.00,VWS V14.01,2013-10-12 01:37:00,
2013-10-11 19:38:00,39.9,10.2,29.91,WNW,292,0.0,0.0,29,0.00,,---,0.00,VWS V14.01,2013-10-12 01:38:00,
2013-10-11 19:39:00,39.7,10.1,29.91,WNW,292,0.0,0.0,29,0.00,,---,0.00,VWS V14.01,2013-10-12 01:39:00,
2013-10-11 19:41:00,39.6,9.9,29.91,WNW,292,0.0,0.0,29,0.00,,---,0.00,VWS V14.01,2013-10-12 01:41:00,
2013-10-11 19:42:00,39.4,9.8,29.91,WNW,292,0.0,0.0,29,0.00,,---,0.00,VWS V14.01,2013-10-12 01:42:00,
2013-10-11 19:43:00,39.2,9.6,29.91,WNW,292,0.0,0.0,29,0.00,,---,0.00,VWS V14.01,2013-10-12 01:43:00,
2013-10-11 19:44:00,39.2,9.6,29.91,WNW,292,0.0,0.0,29,0.00,,---,0.00,VWS V14.01,2013-10-12 01:44:00,
2013-10-11 19:45:00,39.2,9.6,29.91,WNW,292,0.0,0.0,29,0.00,,,0.00,VWS V15.00,2013-10-12 01:45:00,
2013-10-11 19:46:00,38.8,10.1,29.91,WNW,292,0.0,0.0,30,0.00,,---,0.00,VWS V14.01,2013-10-12 01:46:00,
2013-10-11 19:48:00,38.7,9.9,29.91,WNW,292,0.0,0.0,30,0.00,,---,0.00,VWS V14.01,2013-10-12 01:48:00,
2013-10-11 19:49:00,38.7,9.9,29.91,WNW,292,0.0,0.0,30,0.00,,---,0.00,VWS V14.01,2013-10-12 01:49:00,
2013-10-11 19:51:00,38.3,9.6,29.91,WNW,292,0.0,0.0,30,0.00,,---,0.00,VWS V14.01,2013-10-12 01:51:00,
2013-10-11 19:53:00,38.1,9.4,29.91,WNW,292,0.0,0.0,30,0.00,,---,0.00,VWS V14.01,2013-10-12 01:53:00,
2013-10-11 19:54:00,37.9,9.3,29.91,WNW,292,0.0,0.0,30,0.00,,---,0.00,VWS V14.01,2013-10-12 01:54:00,
2013-10-11 19:57:00,37.8,9.1,29.91,WNW,292,0.0,0.0,30,0.00,,---,0.00,VWS V14.01,2013-10-12 01:57:00,
2013-10-11 19:58:00,37.6,9.0,29.91,WNW,292,0.0,0.0,30,0.00,,---,0.00,VWS V14.01,2013-10-12 01:58:00,
2013-10-11 19:59:00,37.6,9.0,29.91,WNW,292,0.0,0.0,30,0.00,,---,0.00,VWS V14.01,2013-10-12 01:59:00,
2013-10-11 20:00:00,37.6,9.0,29.91,WNW,292,0.0,0.0,30,0.00,,---,0.00,VWS V14.01,2013-10-12 02:00:00,
2013-10-11 20:02:00,37.4,9.5,29.91,WNW,292,0.0,0.0,31,0.00,,---,0.00,VWS V14.01,2013-10-12 02:02:00,
2013-10-11 20:03:00,37.4,9.5,29.91,WNW,292,0.0,0.0,31,0.00,,---,0.00,VWS V14.01,2013-10-12 02:03:00,
2013-10-11 20:04:00,37.4,9.5,29.91,WNW,292,0.0,0.0,31,0.00,,---,0.00,VWS V14.01,2013-10-12 02:04:00,
2013-10-11 20:05:00,37.4,9.5,29.91,WNW,292,0.0,0.0,31,0.00,,---,0.00,VWS V14.01,2013-10-12 02:05:00,
2013-10-11 20:07:00,37.4,9.5,29.91,WNW,292,0.0,0.0,31,0.00,,---,0.00,VWS V14.01,2013-10-12 02:07:00,
2013-10-11 20:09:00,37.0,9.2,29.91,WNW,292,0.0,0.0,31,0.00,,---,0.00,VWS V14.01,2013-10-12 02:09:00,
2013-10-11 20:10:00,37.0,9.9,29.91,WNW,292,0.0,0.0,32,0.00,,---,0.00,VWS V14.01,2013-10-12 02:10:00,
2013-10-11 20:11:00,37.0,9.9,29.91,WNW,292,0.0,0.0,32,0.00,,---,0.00,VWS V14.01,2013-10-12 02:11:00,
2013-10-11 20:12:00,36.9,9.8,29.91,WNW,292,0.0,0.0,32,0.00,,---,0.00,VWS V14.01,2013-10-12 02:12:00,
2013-10-11 20:14:00,36.7,9.6,29.91,WNW,292,0.0,0.0,32,0.00,,---,0.00,VWS V14.01,2013-10-12 02:14:00,
2013-10-11 20:15:00,36.7,9.6,29.91,WNW,292,0.0,0.0,32,0.00,,---,0.00,VWS V14.01,2013-10-12 02:15:00,
2013-10-11 20:16:00,36.7,9.6,29.91,WNW,292,0.0,0.0,32,0.00,,---,0.00,VWS V14.01,2013-10-12 02:16:00,
2013-10-11 20:17:00,36.7,9.6,29.91,WNW,292,0.0,0.0,32,0.00,,---,0.00,VWS V14.01,2013-10-12 02:17:00,
2013-10-11 20:19:00,36.7,9.6,29.91,WNW,290,0.0,0.0,32,0.00,,---,0.00,VWS V14.01,2013-10-12 02:19:00,
2013-10-11 20:20:00,36.7,9.6,29.91,WNW,292,0.0,0.0,32,0.00,,---,0.00,VWS V14.01,2013-10-12 02:20:00,
2013-10-11 20:21:00,36.7,9.6,29.91,WNW,292,0.0,0.0,32,0.00,,---,0.00,VWS V14.01,2013-10-12 02:21:00,
2013-10-11 20:22:00,36.7,9.6,29.91,WNW,292,0.0,0.0,32,0.00,,---,0.00,VWS V14.01,2013-10-12 02:22:00,
2013-10-11 20:24:00,37.0,9.9,29.91,WNW,292,0.0,0.0,32,0.00,,---,0.00,VWS V14.01,2013-10-12 02:24:00,
2013-10-11 20:25:00,37.0,9.9,29.91,WNW,292,0.0,0.0,32,0.00,,---,0.00,VWS V14.01,2013-10-12 02:25:00,
2013-10-11 20:26:00,37.2,10.1,29.91,WNW,292,0.0,0.0,32,0.00,,---,0.00,VWS V14.01,2013-10-12 02:26:00,
2013-10-11 20:27:00,37.4,10.2,29.91,WNW,292,0.0,0.0,32,0.00,,---,0.00,VWS V14.01,2013-10-12 02:27:00,
2013-10-11 20:29:00,37.4,10.2,29.91,South,184,0.0,0.0,32,0.00,,---,0.00,VWS V14.01,2013-10-12 02:29:00,
2013-10-11 20:30:00,37.4,10.2,29.91,South,184,0.0,0.0,32,0.00,,---,0.00,VWS V14.01,2013-10-12 02:30:00,
2013-10-11 20:31:00,37.2,10.8,29.91,South,188,2.7,3.1,33,0.00,,---,0.00,VWS V14.01,2013-10-12 02:31:00,
2013-10-11 20:32:00,37.0,10.6,29.91,South,188,2.7,2.7,33,0.00,,---,0.00,VWS V14.01,2013-10-12 02:32:00,
2013-10-11 20:35:00,36.7,10.3,29.91,South,189,2.2,2.7,33,0.00,,---,0.00,VWS V14.01,2013-10-12 02:35:00,
2013-10-11 20:37:00,36.3,10.0,29.91,SSW,200,2.7,3.1,33,0.00,,---,0.00,VWS V14.01,2013-10-12 02:37:00,
2013-10-11 20:38:00,36.3,10.0,29.91,SSW,200,0.0,2.7,33,0.00,,---,0.00,VWS V14.01,2013-10-12 02:38:00,
2013-10-11 20:40:00,36.1,9.8,29.91,SSW,196,2.7,3.6,33,0.00,,---,0.00,VWS V14.01,2013-10-12 02:40:00,
2013-10-11 20:42:00,36.1,10.5,29.91,SSW,195,2.7,2.7,34,0.00,,---,0.00,VWS V14.01,2013-10-12 02:42:00,
2013-10-11 20:43:00,36.1,10.5,29.91,SSW,193,3.1,3.1,34,0.00,,---,0.00,VWS V14.01,2013-10-12 02:43:00,
2013-10-11 20:44:00,36.1,10.5,29.91,SSW,193,2.7,3.1,34,0.00,,---,0.00,VWS V14.01,2013-10-12 02:44:00,
2013-10-11 20:45:00,36.1,10.5,29.91,SSW,193,2.7,3.1,34,0.00,,---,0.00,VWS V14.01,2013-10-12 02:45:00,
2013-10-11 20:47:00,36.3,10.6,29.91,SSW,192,2.7,3.1,34,0.00,,---,0.00,VWS V14.01,2013-10-12 02:47:00,
2013-10-11 20:48:00,36.3,10.6,29.91,SSW,192,2.2,2.7,34,0.00,,---,0.00,VWS V14.01,2013-10-12 02:48:00,
2013-10-11 20:49:00,36.3,10.6,29.91,SSW,192,2.2,2.7,34,0.00,,---,0.00,VWS V14.01,2013-10-12 02:49:00,
2013-10-11 20:50:00,36.3,10.6,29.91,SSW,192,0.0,0.0,34,0.00,,---,0.00,VWS V14.01,2013-10-12 02:50:00,
2013-10-11 20:52:00,36.3,10.6,29.91,South,190,4.0,4.0,34,0.00,,---,0.00,VWS V14.01,2013-10-12 02:52:00,
2013-10-11 20:53:00,36.3,10.6,29.91,SSW,194,2.7,4.0,34,0.00,,---,0.00,VWS V14.01,2013-10-12 02:53:00,
2013-10-11 20:54:00,36.1,10.5,29.91,SSW,193,3.6,3.6,34,0.00,,---,0.00,VWS V14.01,2013-10-12 02:54:00,
2013-10-11 20:55:00,36.1,10.5,29.91,SSW,192,3.6,3.6,34,0.00,,---,0.00,VWS V14.01,2013-10-12 02:55:00,
2013-10-11 20:56:00,36.1,10.5,29.91,SSW,194,4.0,4.0,34,0.00,,---,0.00,VWS V14.01,2013-10-12 02:56:00,
2013-10-11 20:58:00,36.0,10.3,29.91,SSW,193,3.1,3.6,34,0.00,,---,0.00,VWS V14.01,2013-10-12 02:58:00,
2013-10-11 20:59:00,36.0,10.3,29.91,South,191,2.2,2.7,34,0.00,,---,0.00,VWS V14.01,2013-10-12 02:59:00,
2013-10-11 21:00:00,36.0,10.3,29.91,South,190,2.7,2.7,34,0.00,,---,0.00,VWS V14.01,2013-10-12 03:00:00,
2013-10-11 21:01:00,35.8,10.2,29.91,South,190,4.9,4.9,34,0.00,,---,0.00,VWS V14.01,2013-10-12 03:01:00,
2013-10-11 21:03:00,35.8,10.2,29.91,South,191,3.1,3.6,34,0.00,,---,0.00,VWS V14.01,2013-10-12 03:03:00,
2013-10-11 21:05:00,35.6,10.7,29.91,South,190,2.7,3.1,35,0.00,,---,0.00,VWS V14.01,2013-10-12 03:05:00,
2013-10-11 21:06:00,35.6,10.7,29.91,South,187,2.7,2.7,35,0.00,,---,0.00,VWS V14.01,2013-10-12 03:06:00,
2013-10-11 21:08:00,35.4,10.5,29.91,South,190,3.6,3.6,35,0.00,,---,0.00,VWS V14.01,2013-10-12 03:08:00,
2013-10-11 21:10:00,35.4,11.1,29.91,SSW,192,4.0,5.4,36,0.00,,---,0.00,VWS V14.01,2013-10-12 03:10:00,
2013-10-11 21:11:00,35.2,11.0,29.91,SSW,203,4.0,4.0,36,0.00,,---,0.00,VWS V14.01,2013-10-12 03:11:00,
2013-10-11 21:13:00,35.2,11.0,29.91,SSW,199,4.9,4.9,36,0.00,,---,0.00,VWS V14.01,2013-10-12 03:13:00,
2013-10-11 21:15:00,35.2,11.0,29.91,SSW,198,3.6,4.0,36,0.00,,---,0.00,VWS V14.01,2013-10-12 03:15:00,
2013-10-11 21:16:00,35.2,11.0,29.91,SSW,198,4.0,4.0,36,0.00,,---,0.00,VWS V14.01,2013-10-12 03:16:00,
2013-10-11 21:18:00,35.4,11.1,29.91,SSW,200,3.6,4.0,36,0.00,,---,0.00,VWS V14.01,2013-10-12 03:18:00,
2013-10-11 21:20:00,35.6,11.3,29.91,SSW,197,3.6,3.6,36,0.00,,---,0.00,VWS V14.01,2013-10-12 03:20:00,
2013-10-11 21:21:00,35.6,11.3,29.91,SSW,197,3.6,3.6,36,0.00,,---,0.00,VWS V14.01,2013-10-12 03:21:00,
2013-10-11 21:23:00,35.6,11.3,29.91,SSW,197,2.7,2.7,36,0.00,,---,0.00,VWS V14.01,2013-10-12 03:23:00,
2013-10-11 21:24:00,35.4,11.1,29.91,SSW,197,2.7,2.7,36,0.00,,---,0.00,VWS V14.01,2013-10-12 03:24:00,
2013-10-11 21:25:00,35.4,11.1,29.91,SSW,197,0.0,0.0,36,0.00,,---,0.00,VWS V14.01,2013-10-12 03:25:00,
2013-10-11 21:26:00,35.4,11.1,29.91,SSW,197,0.0,0.0,36,0.00,,---,0.00,VWS V14.01,2013-10-12 03:26:00,
2013-10-11 21:27:00,35.4,11.1,29.91,SSW,197,0.0,0.0,36,0.00,,---,0.00,VWS V14.01,2013-10-12 03:27:00,
2013-10-11 21:28:00,35.2,11.0,29.91,SSW,197,0.0,0.0,36,0.00,,---,0.00,VWS V14.01,2013-10-12 03:28:00,
2013-10-11 21:29:00,35.2,11.0,29.91,SSW,197,0.0,0.0,36,0.00,,---,0.00,VWS V14.01,2013-10-12 03:29:00,
2013-10-11 21:30:00,35.2,11.0,29.91,SSW,197,0.0,0.0,36,0.00,,---,0.00,VWS V14.01,2013-10-12 03:30:00,
2013-10-11 21:32:00,35.1,10.8,29.91,SSW,197,0.0,0.0,36,0.00,,---,0.00,VWS V14.01,2013-10-12 03:32:00,
2013-10-11 21:34:00,35.1,10.8,29.91,SSW,197,0.0,0.0,36,0.00,,---,0.00,VWS V14.01,2013-10-12 03:34:00,
2013-10-11 21:35:00,34.9,10.6,29.91,SSW,197,0.0,0.0,36,0.00,,---,0.00,VWS V14.01,2013-10-12 03:35:00,
2013-10-11 21:37:00,34.7,10.5,29.91,SSW,197,0.0,0.0,36,0.00,,---,0.00,VWS V14.01,2013-10-12 03:37:00,
2013-10-11 21:38:00,34.5,10.3,29.91,SSW,197,0.0,0.0,36,0.00,,---,0.00,VWS V14.01,2013-10-12 03:38:00,
2013-10-11 21:39:00,34.5,10.9,29.91,SSW,197,0.0,0.0,37,0.00,,---,0.00,VWS V14.01,2013-10-12 03:39:00,
2013-10-11 21:40:00,34.3,10.8,29.91,SSW,197,0.0,0.0,37,0.00,,---,0.00,VWS V14.01,2013-10-12 03:40:00,
2013-10-11 21:41:00,34.2,10.6,29.91,SSW,197,0.0,0.0,37,0.00,,---,0.00,VWS V14.01,2013-10-12 03:41:00,
2013-10-11 21:42:00,34.2,10.6,29.91,SSW,197,0.0,0.0,37,0.00,,---,0.00,VWS V14.01,2013-10-12 03:42:00,
2013-10-11 21:43:00,34.0,10.5,29.91,SSW,197,0.0,0.0,37,0.00,,---,0.00,VWS V14.01,2013-10-12 03:43:00,
2013-10-11 21:44:00,34.0,11.1,29.91,SSW,197,0.0,0.0,38,0.00,,---,0.00,VWS V14.01,2013-10-12 03:44:00,
2013-10-11 21:45:00,34.0,11.1,29.91,SSW,197,0.0,0.0,38,0.00,,---,0.00,VWS V14.01,2013-10-12 03:45:00,
2013-10-11 21:46:00,33.8,10.9,29.91,SSW,197,0.0,0.0,38,0.00,,---,0.00,VWS V14.01,2013-10-12 03:46:00,
2013-10-11 21:47:00,33.8,10.9,29.91,SSW,197,0.0,0.0,38,0.00,,---,0.00,VWS V14.01,2013-10-12 03:47:00,
2013-10-11 21:48:00,33.8,11.5,29.91,SSW,197,0.0,0.0,39,0.00,,---,0.00,VWS V14.01,2013-10-12 03:48:00,
2013-10-11 21:49:00,33.8,11.5,29.91,SSW,197,0.0,0.0,39,0.00,,---,0.00,VWS V14.01,2013-10-12 03:49:00,
2013-10-11 21:50:00,33.6,11.3,29.91,SSW,197,0.0,0.0,39,0.00,,---,0.00,VWS V14.01,2013-10-12 03:50:00,
2013-10-11 21:51:00,33.6,11.3,29.91,SSW,196,0.0,0.0,39,0.00,,---,0.00,VWS V14.01,2013-10-12 03:51:00,
2013-10-11 21:52:00,33.6,11.9,29.91,SSW,197,0.0,0.0,40,0.00,,---,0.00,VWS V14.01,2013-10-12 03:52:00,
2013-10-11 21:53:00,33.6,11.9,29.91,SSW,197,0.0,0.0,40,0.00,,---,0.00,VWS V14.01,2013-10-12 03:53:00,
2013-10-11 21:54:00,33.6,11.9,29.91,SSW,197,0.0,0.0,40,0.00,,---,0.00,VWS V14.01,2013-10-12 03:54:00,
2013-10-11 21:55:00,33.6,11.9,29.91,SSW,197,0.0,0.0,40,0.00,,---,0.00,VWS V14.01,2013-10-12 03:55:00,
2013-10-11 21:56:00,33.8,12.1,29.91,SSW,197,0.0,0.0,40,0.00,,---,0.00,VWS V14.01,2013-10-12 03:56:00,
2013-10-11 21:57:00,34.0,12.2,29.91,SSW,197,0.0,0.0,40,0.00,,---,0.00,VWS V14.01,2013-10-12 03:57:00,
2013-10-11 21:58:00,34.2,11.8,29.91,SSW,197,0.0,0.0,39,0.00,,---,0.00,VWS V14.01,2013-10-12 03:58:00,
2013-10-11 21:59:00,34.3,12.0,29.91,SSW,197,0.0,0.0,39,0.00,,---,0.00,VWS V14.01,2013-10-12 03:59:00,
2013-10-11 22:00:00,34.5,11.5,29.91,SSW,197,0.0,0.0,38,0.00,,---,0.00,VWS V14.01,2013-10-12 04:00:00,
2013-10-11 22:01:00,34.5,11.5,29.91,SSW,197,0.0,0.0,38,0.00,,---,0.00,VWS V14.01,2013-10-12 04:01:00,
2013-10-11 22:06:00,36.0,12.2,29.91,SSW,206,0.0,0.0,37,0.00,,---,0.00,VWS V14.01,2013-10-12 04:06:00,
2013-10-11 22:11:00,37.2,12.1,29.91,SSW,210,0.0,0.0,35,0.00,,---,0.00,VWS V14.01,2013-10-12 04:11:00,
2013-10-11 22:15:00,37.8,11.9,29.91,SSW,210,0.0,0.0,34,0.00,,,0.00,VWS V15.00,2013-10-12 04:15:00,
2013-10-11 22:16:00,37.9,11.4,29.91,SSW,210,0.0,0.0,33,0.00,,---,0.00,VWS V14.01,2013-10-12 04:16:00,
2013-10-11 22:17:00,37.9,11.4,29.91,SSW,210,0.0,0.0,33,0.00,,---,0.00,VWS V14.01,2013-10-12 04:17:00,
2013-10-11 22:21:00,38.1,11.6,29.91,SSW,210,0.0,0.0,33,0.00,,---,0.00,VWS V14.01,2013-10-12 04:21:00,
2013-10-11 22:22:00,38.1,11.6,29.91,SSW,210,0.0,0.0,33,0.00,,---,0.00,VWS V14.01,2013-10-12 04:22:00,
2013-10-11 22:26:00,37.2,11.4,29.91,SSW,195,0.0,0.0,34,0.00,,---,0.00,VWS V14.01,2013-10-12 04:26:00,
2013-10-11 22:27:00,36.9,11.1,29.91,SSW,195,0.0,0.0,34,0.00,,---,0.00,VWS V14.01,2013-10-12 04:27:00,
2013-10-11 22:30:00,35.8,10.2,29.91,SSW,195,0.0,0.0,34,0.00,,,0.00,VWS V15.00,2013-10-12 04:30:00,
2013-10-11 22:31:00,35.4,10.5,29.91,SSW,195,0.0,0.0,35,0.00,,---,0.00,VWS V14.01,2013-10-12 04:31:00,
2013-10-11 22:32:00,35.2,10.3,29.91,SSW,195,0.0,0.0,35,0.00,,---,0.00,VWS V14.01,2013-10-12 04:32:00,
2013-10-11 22:33:00,34.9,10.0,29.91,SSW,195,0.0,0.0,35,0.00,,---,0.00,VWS V14.01,2013-10-12 04:33:00,
2013-10-11 22:36:00,34.5,10.9,29.91,SSW,193,3.1,3.1,37,0.00,,---,0.00,VWS V14.01,2013-10-12 04:36:00,
2013-10-11 22:37:00,34.5,10.9,29.91,SSW,195,4.0,4.0,37,0.00,,---,0.00,VWS V14.01,2013-10-12 04:37:00,
2013-10-11 22:38:00,34.5,10.9,29.91,SSW,196,3.6,4.0,37,0.00,,---,0.00,VWS V14.01,2013-10-12 04:38:00,
2013-10-11 22:41:00,34.5,11.5,29.91,SSW,203,4.9,5.4,38,0.00,,---,0.00,VWS V14.01,2013-10-12 04:41:00,
2013-10-11 22:42:00,34.7,11.7,29.91,SSW,195,4.9,4.9,38,0.00,,---,0.00,VWS V14.01,2013-10-12 04:42:00,
2013-10-11 22:43:00,34.7,11.7,29.91,SSW,199,3.1,4.0,38,0.00,,---,0.00,VWS V14.01,2013-10-12 04:43:00,
2013-10-11 22:45:00,34.9,11.9,29.91,SSW,199,3.6,3.6,38,0.00,,,0.00,VWS V15.00,2013-10-12 04:45:00,
2013-10-11 22:46:00,34.9,11.9,29.91,SSW,199,3.1,3.1,38,0.00,,---,0.00,VWS V14.01,2013-10-12 04:46:00,
2013-10-11 22:47:00,34.9,11.9,29.91,SSW,199,3.6,3.6,38,0.00,,---,0.00,VWS V14.01,2013-10-12 04:47:00,
2013-10-11 22:48:00,34.9,11.9,29.91,SSW,198,3.1,5.4,38,0.00,,---,0.00,VWS V14.01,2013-10-12 04:48:00,
2013-10-11 22:51:00,35.1,11.4,29.91,SSW,197,2.7,2.7,37,0.00,,---,0.00,VWS V14.01,2013-10-12 04:51:00,
2013-10-11 22:52:00,35.1,11.4,29.91,SSW,197,2.7,2.7,37,0.00,,---,0.00,VWS V14.01,2013-10-12 04:52:00,
2013-10-11 22:53:00,35.1,11.4,29.91,SSW,197,0.0,2.2,37,0.00,,---,0.00,VWS V14.01,2013-10-12 04:53:00,
2013-10-11 22:54:00,35.1,12.0,29.91,SSW,197,0.0,0.0,38,0.00,,---,0.00,VWS V14.01,2013-10-12 04:54:00,
2013-10-11 22:56:00,34.9,11.9,29.91,SSW,197,0.0,2.2,38,0.00,,---,0.00,VWS V14.01,2013-10-12 04:56:00,
2013-10-11 22:57:00,34.9,11.9,29.91,SSW,197,0.0,0.0,38,0.00,,---,0.00,VWS V14.01,2013-10-12 04:57:00,
2013-10-11 22:58:00,34.7,11.7,29.91,SSW,197,0.0,2.7,38,0.00,,---,0.00,VWS V14.01,2013-10-12 04:58:00,
2013-10-11 22:59:00,34.7,11.7,29.91,SSW,197,2.2,2.2,38,0.00,,---,0.00,VWS V14.01,2013-10-12 04:59:00,
2013-10-11 23:00:00,34.5,11.5,29.91,SSW,197,2.2,2.7,38,0.00,,---,0.00,VWS V14.01,2013-10-12 05:00:00,
2013-10-11 23:01:00,34.5,12.1,29.91,SSW,197,2.2,2.2,39,0.00,,---,0.00,VWS V14.01,2013-10-12 05:01:00,
2013-10-11 23:02:00,34.3,12.0,29.91,SSW,197,0.0,2.2,39,0.00,,---,0.00,VWS V14.01,2013-10-12 05:02:00,
2013-10-11 23:03:00,34.2,11.8,29.91,SSW,197,4.0,4.0,39,0.00,,---,0.00,VWS V14.01,2013-10-12 05:03:00,
2013-10-11 23:04:00,34.2,11.8,29.91,SSW,196,2.7,4.0,39,0.00,,---,0.00,VWS V14.01,2013-10-12 05:04:00,
2013-10-11 23:05:00,34.2,11.8,29.91,SSW,196,3.1,3.1,39,0.00,,---,0.00,VWS V14.01,2013-10-12 05:05:00,
2013-10-11 23:06:00,34.0,12.2,29.91,SSW,193,3.6,4.0,40,0.00,,---,0.00,VWS V14.01,2013-10-12 05:06:00,
2013-10-11 23:07:00,34.0,12.2,29.91,SSW,193,2.7,2.7,40,0.00,,---,0.00,VWS V14.01,2013-10-12 05:07:00,
2013-10-11 23:08:00,34.0,12.2,29.91,SSW,193,2.2,2.7,40,0.00,,---,0.00,VWS V14.01,2013-10-12 05:08:00,
2013-10-11 23:09:00,34.0,12.2,29.91,SSW,193,2.2,2.2,40,0.00,,---,0.00,VWS V14.01,2013-10-12 05:09:00,
2013-10-11 23:10:00,34.0,12.2,29.91,SSW,193,2.7,2.7,40,0.00,,---,0.00,VWS V14.01,2013-10-12 05:10:00,
2013-10-11 23:12:00,34.0,12.2,29.91,SSW,193,2.2,2.2,40,0.00,,---,0.00,VWS V14.01,2013-10-12 05:12:00,
2013-10-11 23:13:00,34.0,12.2,29.91,SSW,193,2.7,2.7,40,0.00,,---,0.00,VWS V14.01,2013-10-12 05:13:00,
2013-10-11 23:14:00,34.0,12.2,29.91,SSW,193,2.2,2.2,40,0.00,,---,0.00,VWS V14.01,2013-10-12 05:14:00,
2013-10-11 23:15:00,34.0,12.2,29.91,SSW,193,2.2,2.2,40,0.00,,---,0.00,VWS V14.01,2013-10-12 05:15:00,
2013-10-11 23:17:00,34.0,12.2,29.91,SSW,193,2.2,2.2,40,0.00,,---,0.00,VWS V14.01,2013-10-12 05:17:00,
2013-10-11 23:18:00,34.0,12.2,29.91,SSW,192,2.2,2.7,40,0.00,,---,0.00,VWS V14.01,2013-10-12 05:18:00,
2013-10-11 23:19:00,33.8,12.1,29.91,SSW,192,0.0,2.2,40,0.00,,---,0.00,VWS V14.01,2013-10-12 05:19:00,
2013-10-11 23:20:00,33.8,12.1,29.91,South,189,2.7,2.7,40,0.00,,---,0.00,VWS V14.01,2013-10-12 05:20:00,
2013-10-11 23:22:00,33.6,11.9,29.91,SSW,194,3.1,4.0,40,0.00,,---,0.00,VWS V14.01,2013-10-12 05:22:00,
2013-10-11 23:23:00,33.4,11.7,29.91,SSW,195,4.0,4.0,40,0.00,,---,0.00,VWS V14.01,2013-10-12 05:23:00,
2013-10-11 23:24:00,33.4,12.3,29.91,SSW,195,3.6,3.6,41,0.00,,---,0.00,VWS V14.01,2013-10-12 05:24:00,
2013-10-11 23:26:00,33.3,12.1,29.91,SSW,193,3.1,3.1,41,0.00,,---,0.00,VWS V14.01,2013-10-12 05:26:00,
2013-10-11 23:27:00,33.3,12.1,29.91,SSW,195,3.1,4.0,41,0.00,,---,0.00,VWS V14.01,2013-10-12 05:27:00,
2013-10-11 23:28:00,33.3,12.1,29.91,SSW,195,3.6,3.6,41,0.00,,---,0.00,VWS V14.01,2013-10-12 05:28:00,
2013-10-11 23:29:00,33.3,12.1,29.91,SSW,194,3.1,3.1,41,0.00,,---,0.00,VWS V14.01,2013-10-12 05:29:00,
2013-10-11 23:30:00,33.3,12.1,29.91,SSW,194,0.0,2.2,41,0.00,,---,0.00,VWS V14.01,2013-10-12 05:30:00,
2013-10-11 23:31:00,33.3,12.1,29.91,SSW,194,2.7,2.7,41,0.00,,---,0.00,VWS V14.01,2013-10-12 05:31:00,
2013-10-11 23:32:00,33.3,12.1,29.91,SSW,194,0.0,2.2,41,0.00,,---,0.00,VWS V14.01,2013-10-12 05:32:00,
2013-10-11 23:33:00,33.3,12.1,29.91,SSW,194,0.0,0.0,41,0.00,,---,0.00,VWS V14.01,2013-10-12 05:33:00,
2013-10-11 23:34:00,33.3,12.1,29.91,SSW,194,0.0,0.0,41,0.00,,---,0.00,VWS V14.01,2013-10-12 05:34:00,
2013-10-11 23:35:00,33.3,12.1,29.91,SSW,194,0.0,0.0,41,0.00,,---,0.00,VWS V14.01,2013-10-12 05:35:00,
2013-10-11 23:37:00,33.1,12.0,29.91,SSW,194,0.0,0.0,41,0.00,,---,0.00,VWS V14.01,2013-10-12 05:37:00,
2013-10-11 23:38:00,33.1,12.0,29.91,SSW,195,2.7,2.7,41,0.00,,---,0.00,VWS V14.01,2013-10-12 05:38:00,
2013-10-11 23:39:00,33.1,12.0,29.91,SSW,195,2.7,2.7,41,0.00,,---,0.00,VWS V14.01,2013-10-12 05:39:00,
2013-10-11 23:40:00,33.1,12.0,29.91,SSW,194,0.0,0.0,41,0.00,,---,0.00,VWS V14.01,2013-10-12 05:40:00,
2013-10-11 23:42:00,33.1,12.0,29.91,SSW,194,0.0,0.0,41,0.00,,---,0.00,VWS V14.01,2013-10-12 05:42:00,
2013-10-11 23:44:00,33.1,12.0,29.91,SSW,193,2.7,2.7,41,0.00,,---,0.00,VWS V14.01,2013-10-12 05:44:00,
2013-10-11 23:45:00,33.1,12.0,29.91,SSW,193,2.7,2.7,41,0.00,,---,0.00,VWS V14.01,2013-10-12 05:45:00,
2013-10-11 23:47:00,33.1,12.0,29.91,South,190,2.2,2.7,41,0.00,,---,0.00,VWS V14.01,2013-10-12 05:47:00,
2013-10-11 23:49:00,32.9,11.8,29.91,South,190,2.7,2.7,41,0.00,,---,0.00,VWS V14.01,2013-10-12 05:49:00,
2013-10-11 23:51:00,32.9,11.8,29.91,South,189,2.7,3.6,41,0.00,,---,0.00,VWS V14.01,2013-10-12 05:51:00,
2013-10-11 23:52:00,32.9,11.8,29.91,South,189,2.7,2.7,41,0.00,,---,0.00,VWS V14.01,2013-10-12 05:52:00,
2013-10-11 23:53:00,32.9,11.8,29.91,South,189,2.7,2.7,41,0.00,,---,0.00,VWS V14.01,2013-10-12 05:53:00,
2013-10-11 23:54:00,32.7,11.6,29.91,South,189,2.7,3.1,41,0.00,,---,0.00,VWS V14.01,2013-10-12 05:54:00,
2013-10-11 23:56:00,32.7,11.6,29.91,South,190,2.7,3.6,41,0.00,,---,0.00,VWS V14.01,2013-10-12 05:56:00,
2013-10-11 23:58:00,32.9,11.8,29.91,South,190,2.7,3.1,41,0.00,,---,0.00,VWS V14.01,2013-10-12 05:58:00,
2013-10-11 23:59:00,33.1,12.0,29.91,SSW,192,3.6,3.6,41,0.00,,---,0.00,VWS V14.01,2013-10-12 05:59:00,